Time,TemperatureF,DewpointF,PressureIn,WindDirection,WindDirectionDegrees,WindSpeedMPH,WindSpeedGustMPH,Humidity,HourlyPrecipIn,Conditions,Clouds,dailyrainin,SoftwareType,DateUTC
2013-08-28 00:01:00,74.2,-19.7,30.05,West,268,0.0,0.0,2,0.00,CLR,,0.00,WeatherDisplay:10.37,2013-08-28 04:01:00,
2013-08-28 00:02:00,74.2,-11.7,30.05,West,268,0.0,0.0,3,0.00,CLR,,0.00,WeatherDisplay:10.37,2013-08-28 04:02:00,
2013-08-28 00:06:00,74.2,-11.7,30.05,West,268,0.0,0.0,3,0.00,CLR,,0.00,WeatherDisplay:10.37,2013-08-28 04:06:00,
2013-08-28 00:07:00,74.2,-11.7,30.05,West,268,0.0,0.0,3,0.00,CLR,,0.00,WeatherDisplay:10.37,2013-08-28 04:07:00,
2013-08-28 00:08:00,74.1,-11.8,30.05,North,0,0.0,0.0,3,0.00,CLR,,0.00,WeatherDisplay:10.37,2013-08-28 04:08:00,
2013-08-28 00:11:00,74.2,-11.7,30.05,North,0,0.0,0.0,3,0.00,CLR,,0.00,WeatherDisplay:10.37,2013-08-28 04:11:00,
2013-08-28 00:12:00,74.1,-11.8,30.05,North,0,0.0,0.0,3,0.00,CLR,,0.00,WeatherDisplay:10.37,2013-08-28 04:12:00,
2013-08-28 00:13:00,74.1,-11.8,30.05,North,0,0.0,0.0,3,0.00,CLR,,0.00,WeatherDisplay:10.37,2013-08-28 04:13:00,
2013-08-28 00:14:00,74.1,-11.8,30.05,North,0,0.0,0.0,3,0.00,CLR,,0.00,WeatherDisplay:10.37,2013-08-28 04:14:00,
2013-08-28 00:16:00,74.1,-11.8,30.05,North,0,0.0,0.0,3,0.00,CLR,,0.00,WeatherDisplay:10.37,2013-08-28 04:16:00,
2013-08-28 00:17:00,74.1,-11.8,30.05,North,0,0.0,0.0,3,0.00,CLR,,0.00,WeatherDisplay:10.37,2013-08-28 04:17:00,
2013-08-28 00:19:00,73.9,-19.9,30.05,North,0,0.0,0.0,2,0.00,CLR,,0.00,WeatherDisplay:10.37,2013-08-28 04:19:00,
2013-08-28 00:20:00,74.1,-19.8,30.05,North,0,0.0,0.0,2,0.00,CLR,,0.00,WeatherDisplay:10.37,2013-08-28 04:20:00,
2013-08-28 00:21:00,74.1,-19.8,30.05,North,0,0.0,0.0,2,0.00,CLR,,0.00,WeatherDisplay:10.37,2013-08-28 04:21:00,
2013-08-28 00:22:00,74.1,-11.8,30.05,North,0,0.0,0.0,3,0.00,CLR,,0.00,WeatherDisplay:10.37,2013-08-28 04:22:00,
2013-08-28 00:24:00,73.8,-12.0,30.05,North,0,0.0,0.0,3,0.00,CLR,,0.00,WeatherDisplay:10.37,2013-08-28 04:24:00,
2013-08-28 00:26:00,74.1,-5.9,30.05,North,0,0.0,0.0,4,0.00,CLR,,0.00,WeatherDisplay:10.37,2013-08-28 04:26:00,
2013-08-28 00:27:00,74.1,-5.9,30.05,North,0,0.0,0.0,4,0.00,CLR,,0.00,WeatherDisplay:10.37,2013-08-28 04:27:00,
2013-08-28 00:28:00,74.1,-5.9,30.05,North,0,0.0,0.0,4,0.00,CLR,,0.00,WeatherDisplay:10.37,2013-08-28 04:28:00,
2013-08-28 00:30:00,73.8,-12.0,30.05,North,0,0.0,0.0,3,0.00,CLR,,0.00,WeatherDisplay:10.37,2013-08-28 04:30:00,
2013-08-28 00:31:00,74.0,-11.9,30.05,North,0,0.0,0.0,3,0.00,CLR,,0.00,WeatherDisplay:10.37,2013-08-28 04:31:00,
2013-08-28 00:32:00,73.9,-6.1,30.05,North,0,0.0,0.0,4,0.00,CLR,,0.00,WeatherDisplay:10.37,2013-08-28 04:32:00,
2013-08-28 00:33:00,74.1,-5.9,30.05,North,0,0.0,0.0,4,0.00,CLR,,0.00,WeatherDisplay:10.37,2013-08-28 04:33:00,
2013-08-28 00:35:00,74.0,-6.0,30.05,North,0,0.0,0.0,4,0.00,CLR,,0.00,WeatherDisplay:10.37,2013-08-28 04:35:00,
2013-08-28 00:37:00,73.9,-6.1,30.05,North,0,0.0,0.0,4,0.00,CLR,,0.00,WeatherDisplay:10.37,2013-08-28 04:37:00,
2013-08-28 00:38:00,73.9,-1.4,30.05,North,0,0.0,0.0,5,0.00,CLR,,0.00,WeatherDisplay:10.37,2013-08-28 04:38:00,
2013-08-28 00:39:00,73.9,-6.1,30.05,North,0,0.0,0.0,4,0.00,CLR,,0.00,WeatherDisplay:10.37,2013-08-28 04:39:00,
2013-08-28 00:40:00,73.7,-12.1,30.05,North,0,0.0,0.0,3,0.00,CLR,,0.00,WeatherDisplay:10.37,2013-08-28 04:40:00,
2013-08-28 00:42:00,73.8,-20.0,30.05,North,0,0.0,0.0,2,0.00,CLR,,0.00,WeatherDisplay:10.37,2013-08-28 04:42:00,
2013-08-28 00:43:00,74.0,-19.9,30.05,North,0,0.0,0.0,2,0.00,CLR,,0.00,WeatherDisplay:10.37,2013-08-28 04:43:00,
2013-08-28 00:44:00,73.8,-12.0,30.05,North,0,0.0,0.0,3,0.00,CLR,,0.00,WeatherDisplay:10.37,2013-08-28 04:44:00,
2013-08-28 00:45:00,73.5,-12.2,30.05,North,0,0.0,0.0,3,0.00,CLR,,0.00,WeatherDisplay:10.37,2013-08-28 04:45:00,
2013-08-28 00:48:00,73.9,-6.1,30.05,North,0,0.0,0.0,4,0.00,CLR,,0.00,WeatherDisplay:10.37,2013-08-28 04:48:00,
2013-08-28 00:49:00,74.0,-6.0,30.05,North,0,0.0,0.0,4,0.00,CLR,,0.00,WeatherDisplay:10.37,2013-08-28 04:49:00,
2013-08-28 00:50:00,74.0,-6.0,30.05,North,0,0.0,0.0,4,0.00,CLR,,0.00,WeatherDisplay:10.37,2013-08-28 04:50:00,
2013-08-28 00:53:00,74.0,-6.0,30.05,North,0,0.0,0.0,4,0.00,CLR,,0.00,WeatherDisplay:10.37,2013-08-28 04:53:00,
2013-08-28 00:54:00,74.1,-5.9,30.05,North,0,0.0,0.0,4,0.00,CLR,,0.00,WeatherDisplay:10.37,2013-08-28 04:54:00,
2013-08-28 00:55:00,74.1,-5.9,30.05,North,0,0.0,0.0,4,0.00,CLR,,0.00,WeatherDisplay:10.37,2013-08-28 04:55:00,
2013-08-28 00:58:00,74.1,-5.9,30.05,North,0,0.0,0.0,4,0.00,CLR,,0.00,WeatherDisplay:10.37,2013-08-28 04:58:00,
2013-08-28 01:00:00,74.1,-5.9,30.05,North,0,0.0,0.0,4,0.00,CLR,,0.00,WeatherDisplay:10.37,2013-08-28 05:00:00,
2013-08-28 01:01:00,74.1,-5.9,30.05,North,0,0.0,0.0,4,0.00,CLR,,0.00,WeatherDisplay:10.37,2013-08-28 05:01:00,
2013-08-28 01:03:00,74.1,-5.9,30.05,North,0,0.0,0.0,4,0.00,CLR,,0.00,WeatherDisplay:10.37,2013-08-28 05:03:00,
2013-08-28 01:05:00,74.0,-6.0,30.05,North,0,0.0,0.0,4,0.00,CLR,,0.00,WeatherDisplay:10.37,2013-08-28 05:05:00,
2013-08-28 01:06:00,74.1,-5.9,30.05,North,0,0.0,0.0,4,0.00,CLR,,0.00,WeatherDisplay:10.37,2013-08-28 05:06:00,
2013-08-28 01:08:00,74.1,-5.9,30.05,North,0,0.0,0.0,4,0.00,CLR,,0.00,WeatherDisplay:10.37,2013-08-28 05:08:00,
2013-08-28 01:10:00,74.1,-5.9,30.05,North,0,0.0,0.0,4,0.00,CLR,,0.00,WeatherDisplay:10.37,2013-08-28 05:10:00,
2013-08-28 01:11:00,74.1,-5.9,30.05,North,0,0.0,0.0,4,0.00,CLR,,0.00,WeatherDisplay:10.37,2013-08-28 05:11:00,
2013-08-28 01:12:00,73.8,-6.1,30.05,North,0,0.0,0.0,4,0.00,CLR,,0.00,WeatherDisplay:10.37,2013-08-28 05:12:00,
2013-08-28 01:13:00,74.1,-5.9,30.04,North,0,0.0,0.0,4,0.00,CLR,,0.00,WeatherDisplay:10.37,2013-08-28 05:13:00,
2013-08-28 01:14:00,74.0,-6.0,30.05,North,0,0.0,0.0,4,0.00,CLR,,0.00,WeatherDisplay:10.37,2013-08-28 05:14:00,
2013-08-28 01:15:00,74.1,-5.9,30.05,North,0,0.0,0.0,4,0.00,CLR,,0.00,WeatherDisplay:10.37,2013-08-28 05:15:00,
2013-08-28 01:16:00,74.1,-1.3,30.05,North,0,0.0,0.0,5,0.00,CLR,,0.00,WeatherDisplay:10.37,2013-08-28 05:16:00,
2013-08-28 01:18:00,74.1,-1.3,30.04,North,0,0.0,0.0,5,0.00,CLR,,0.00,WeatherDisplay:10.37,2013-08-28 05:18:00,
2013-08-28 01:19:00,74.0,-1.3,30.05,North,0,0.0,0.0,5,0.00,CLR,,0.00,WeatherDisplay:10.37,2013-08-28 05:19:00,
2013-08-28 01:20:00,73.9,-1.4,30.04,West,268,0.3,2.3,5,0.00,CLR,,0.00,WeatherDisplay:10.37,2013-08-28 05:20:00,
2013-08-28 01:21:00,73.8,-1.5,30.04,West,268,0.0,0.0,5,0.00,CLR,,0.00,WeatherDisplay:10.37,2013-08-28 05:21:00,
2013-08-28 01:23:00,73.8,-1.5,30.04,West,268,0.0,0.0,5,0.00,CLR,,0.00,WeatherDisplay:10.37,2013-08-28 05:23:00,
2013-08-28 01:24:00,73.9,-1.4,30.04,West,268,0.0,0.0,5,0.00,CLR,,0.00,WeatherDisplay:10.37,2013-08-28 05:24:00,
2013-08-28 01:25:00,73.8,-1.5,30.04,West,268,0.0,0.0,5,0.00,CLR,,0.00,WeatherDisplay:10.37,2013-08-28 05:25:00,
2013-08-28 01:26:00,73.8,-1.5,30.04,West,268,0.0,0.0,5,0.00,CLR,,0.00,WeatherDisplay:10.37,2013-08-28 05:26:00,
2013-08-28 01:29:00,73.8,-1.5,30.04,West,268,0.0,0.0,5,0.00,CLR,,0.00,WeatherDisplay:10.37,2013-08-28 05:29:00,
2013-08-28 01:30:00,73.8,-1.5,30.04,West,268,0.0,0.0,5,0.00,CLR,,0.00,WeatherDisplay:10.37,2013-08-28 05:30:00,
2013-08-28 01:32:00,73.8,-1.5,30.04,West,268,0.0,0.0,5,0.00,CLR,,0.00,WeatherDisplay:10.37,2013-08-28 05:32:00,
2013-08-28 01:34:00,73.8,-1.5,30.04,West,268,0.0,0.0,5,0.00,CLR,,0.00,WeatherDisplay:10.37,2013-08-28 05:34:00,
2013-08-28 01:35:00,73.7,-1.5,30.04,West,268,0.0,0.0,5,0.00,CLR,,0.00,WeatherDisplay:10.37,2013-08-28 05:35:00,
2013-08-28 01:39:00,73.7,2.4,30.04,West,268,0.0,0.0,6,0.00,CLR,,0.00,WeatherDisplay:10.37,2013-08-28 05:39:00,
2013-08-28 01:40:00,73.7,2.4,30.04,West,268,0.0,0.0,6,0.00,CLR,,0.00,WeatherDisplay:10.37,2013-08-28 05:40:00,
2013-08-28 01:41:00,73.5,2.2,30.04,West,268,0.0,0.0,6,0.00,CLR,,0.00,WeatherDisplay:10.37,2013-08-28 05:41:00,
2013-08-28 01:44:00,73.6,-1.6,30.04,NW,325,1.8,3.2,5,0.00,CLR,,0.00,WeatherDisplay:10.37,2013-08-28 05:44:00,
2013-08-28 01:45:00,73.5,-1.7,30.04,NW,325,0.0,0.0,5,0.00,CLR,,0.00,WeatherDisplay:10.37,2013-08-28 05:45:00,
2013-08-28 01:46:00,73.7,-1.5,30.04,NW,325,0.0,0.0,5,0.00,CLR,,0.00,WeatherDisplay:10.37,2013-08-28 05:46:00,
2013-08-28 01:47:00,73.8,-1.5,30.04,NW,325,0.0,0.0,5,0.00,CLR,,0.00,WeatherDisplay:10.37,2013-08-28 05:47:00,
2013-08-28 01:49:00,73.5,-1.7,30.04,WNW,299,2.6,6.9,5,0.00,CLR,,0.00,WeatherDisplay:10.37,2013-08-28 05:49:00,
2013-08-28 01:50:00,73.7,-1.5,30.03,WNW,295,4.0,8.1,5,0.00,CLR,,0.00,WeatherDisplay:10.37,2013-08-28 05:50:00,
2013-08-28 01:51:00,73.7,-1.5,30.03,NW,309,0.6,8.1,5,0.00,CLR,,0.00,WeatherDisplay:10.37,2013-08-28 05:51:00,
2013-08-28 01:52:00,73.9,-1.4,30.03,WNW,296,2.5,4.6,5,0.00,CLR,,0.00,WeatherDisplay:10.37,2013-08-28 05:52:00,
2013-08-28 01:54:00,74.1,-5.9,30.03,North,354,2.2,4.6,4,0.00,CLR,,0.00,WeatherDisplay:10.37,2013-08-28 05:54:00,
2013-08-28 01:55:00,73.8,-1.5,30.03,NW,312,2.8,4.6,5,0.00,CLR,,0.00,WeatherDisplay:10.37,2013-08-28 05:55:00,
2013-08-28 01:56:00,74.0,-6.0,30.03,WNW,288,3.4,4.6,4,0.00,CLR,,0.00,WeatherDisplay:10.37,2013-08-28 05:56:00,
2013-08-28 01:59:00,73.8,-1.5,30.03,West,275,0.5,4.6,5,0.00,CLR,,0.00,WeatherDisplay:10.37,2013-08-28 05:59:00,
2013-08-28 02:00:00,73.8,-1.5,30.03,West,275,0.3,4.6,5,0.00,CLR,,0.00,WeatherDisplay:10.37,2013-08-28 06:00:00,
2013-08-28 02:01:00,74.1,-1.3,30.03,West,275,0.0,0.0,5,0.00,CLR,,0.00,WeatherDisplay:10.37,2013-08-28 06:01:00,
2013-08-28 02:03:00,73.8,-1.5,30.03,NW,313,0.0,2.3,5,0.00,CLR,,0.00,WeatherDisplay:10.37,2013-08-28 06:03:00,
2013-08-28 02:04:00,74.1,-1.3,30.03,NW,313,0.0,0.0,5,0.00,CLR,,0.00,WeatherDisplay:10.37,2013-08-28 06:04:00,
2013-08-28 02:05:00,73.9,-1.4,30.03,NW,313,0.0,0.0,5,0.00,CLR,,0.00,WeatherDisplay:10.37,2013-08-28 06:05:00,
2013-08-28 02:06:00,73.7,-1.5,30.03,WNW,291,0.6,0.0,5,0.00,CLR,,0.00,WeatherDisplay:10.37,2013-08-28 06:06:00,
2013-08-28 02:08:00,73.6,-1.6,30.03,NW,322,4.1,6.9,5,0.00,CLR,,0.00,WeatherDisplay:10.37,2013-08-28 06:08:00,
2013-08-28 02:09:00,73.8,-1.5,30.03,NW,312,1.0,4.6,5,0.00,CLR,,0.00,WeatherDisplay:10.37,2013-08-28 06:09:00,
2013-08-28 02:10:00,73.5,-1.7,30.03,NNW,330,2.3,4.6,5,0.00,CLR,,0.00,WeatherDisplay:10.37,2013-08-28 06:10:00,
2013-08-28 02:11:00,73.8,-1.5,30.03,NNW,342,2.5,5.7,5,0.00,CLR,,0.00,WeatherDisplay:10.37,2013-08-28 06:11:00,
2013-08-28 02:13:00,73.9,-1.4,30.03,WSW,257,0.0,0.0,5,0.00,CLR,,0.00,WeatherDisplay:10.37,2013-08-28 06:13:00,
2013-08-28 02:15:00,73.8,-1.5,30.03,NW,320,3.0,6.9,5,0.00,CLR,,0.00,WeatherDisplay:10.37,2013-08-28 06:15:00,
2013-08-28 02:16:00,73.6,-1.6,30.03,WNW,296,0.4,4.6,5,0.00,CLR,,0.00,WeatherDisplay:10.37,2013-08-28 06:16:00,
2013-08-28 02:18:00,74.0,-1.3,30.03,NW,326,0.9,2.3,5,0.00,CLR,,0.00,WeatherDisplay:10.37,2013-08-28 06:18:00,
2013-08-28 02:20:00,73.8,-1.5,30.03,NW,319,1.5,3.5,5,0.00,CLR,,0.00,WeatherDisplay:10.37,2013-08-28 06:20:00,
2013-08-28 02:21:00,74.1,-1.3,30.03,NW,304,2.0,3.5,5,0.00,CLR,,0.00,WeatherDisplay:10.37,2013-08-28 06:21:00,
2013-08-28 02:23:00,74.1,-5.9,30.03,NW,304,0.0,0.0,4,0.00,CLR,,0.00,WeatherDisplay:10.37,2013-08-28 06:23:00,
2013-08-28 02:25:00,74.1,-5.9,30.02,NW,304,0.0,0.0,4,0.00,CLR,,0.00,WeatherDisplay:10.37,2013-08-28 06:25:00,
2013-08-28 02:26:00,74.0,-6.0,30.02,NW,304,0.0,0.0,4,0.00,CLR,,0.00,WeatherDisplay:10.37,2013-08-28 06:26:00,
2013-08-28 02:27:00,74.1,-5.9,30.02,NW,304,0.0,0.0,4,0.00,CLR,,0.00,WeatherDisplay:10.37,2013-08-28 06:27:00,
2013-08-28 02:29:00,74.0,-6.0,30.02,NW,304,0.0,0.0,4,0.00,CLR,,0.00,WeatherDisplay:10.37,2013-08-28 06:29:00,
2013-08-28 02:30:00,74.1,-5.9,30.02,NW,304,0.0,0.0,4,0.00,CLR,,0.00,WeatherDisplay:10.37,2013-08-28 06:30:00,
2013-08-28 02:31:00,73.8,-6.1,30.02,NW,304,0.0,0.0,4,0.00,CLR,,0.00,WeatherDisplay:10.37,2013-08-28 06:31:00,
2013-08-28 02:33:00,74.1,-5.9,30.02,NW,304,0.0,0.0,4,0.00,CLR,,0.00,WeatherDisplay:10.37,2013-08-28 06:33:00,
2013-08-28 02:34:00,74.0,-6.0,30.03,NW,304,0.0,0.0,4,0.00,CLR,,0.00,WeatherDisplay:10.37,2013-08-28 06:34:00,
2013-08-28 02:35:00,74.1,-5.9,30.02,NW,304,0.0,0.0,4,0.00,CLR,,0.00,WeatherDisplay:10.37,2013-08-28 06:35:00,
2013-08-28 02:36:00,74.1,-5.9,30.02,NW,304,0.0,0.0,4,0.00,CLR,,0.00,WeatherDisplay:10.37,2013-08-28 06:36:00,
2013-08-28 02:37:00,74.1,-5.9,30.02,NW,304,0.0,0.0,4,0.00,CLR,,0.00,WeatherDisplay:10.37,2013-08-28 06:37:00,
2013-08-28 02:38:00,74.1,-5.9,30.02,NW,304,0.0,0.0,4,0.00,CLR,,0.00,WeatherDisplay:10.37,2013-08-28 06:38:00,
2013-08-28 02:40:00,74.1,-5.9,30.02,NW,304,0.0,0.0,4,0.00,CLR,,0.00,WeatherDisplay:10.37,2013-08-28 06:40:00,
2013-08-28 02:41:00,74.1,-5.9,30.02,NW,304,0.0,0.0,4,0.00,CLR,,0.00,WeatherDisplay:10.37,2013-08-28 06:41:00,
2013-08-28 02:44:00,74.1,-5.9,30.02,NW,304,0.0,0.0,4,0.00,CLR,,0.00,WeatherDisplay:10.37,2013-08-28 06:44:00,
2013-08-28 02:46:00,74.1,-1.3,30.02,NW,304,0.0,0.0,5,0.00,CLR,,0.00,WeatherDisplay:10.37,2013-08-28 06:46:00,
2013-08-28 02:48:00,74.1,-1.3,30.02,NW,304,0.0,0.0,5,0.00,CLR,,0.00,WeatherDisplay:10.37,2013-08-28 06:48:00,
2013-08-28 02:49:00,74.0,-1.3,30.02,NW,304,0.0,0.0,5,0.00,CLR,,0.00,WeatherDisplay:10.37,2013-08-28 06:49:00,
2013-08-28 02:51:00,73.8,-1.5,30.02,NW,304,0.0,0.0,5,0.00,CLR,,0.00,WeatherDisplay:10.37,2013-08-28 06:51:00,
2013-08-28 02:53:00,74.1,-1.3,30.02,NW,304,0.0,0.0,5,0.00,CLR,,0.00,WeatherDisplay:10.37,2013-08-28 06:53:00,
2013-08-28 02:55:00,73.8,-1.5,30.02,NW,304,0.0,0.0,5,0.00,CLR,,0.00,WeatherDisplay:10.37,2013-08-28 06:55:00,
2013-08-28 02:56:00,73.9,-1.4,30.02,NW,304,0.0,0.0,5,0.00,CLR,,0.00,WeatherDisplay:10.37,2013-08-28 06:56:00,
2013-08-28 02:59:00,73.9,-1.4,30.01,WNW,292,0.9,3.5,5,0.00,CLR,,0.00,WeatherDisplay:10.37,2013-08-28 06:59:00,
2013-08-28 03:00:00,74.0,-1.3,30.01,WNW,292,0.0,3.5,5,0.00,CLR,,0.00,WeatherDisplay:10.37,2013-08-28 07:00:00,
2013-08-28 03:01:00,73.9,-1.4,30.01,WNW,292,0.0,0.0,5,0.00,CLR,,0.00,WeatherDisplay:10.37,2013-08-28 07:01:00,
2013-08-28 03:04:00,74.0,-1.3,30.01,WNW,292,0.0,0.0,5,0.00,CLR,,0.00,WeatherDisplay:10.37,2013-08-28 07:04:00,
2013-08-28 03:05:00,73.9,-1.4,30.01,WNW,292,0.0,0.0,5,0.00,CLR,,0.00,WeatherDisplay:10.37,2013-08-28 07:05:00,
2013-08-28 03:06:00,73.9,-1.4,30.01,WNW,282,1.0,0.0,5,0.00,CLR,,0.00,WeatherDisplay:10.37,2013-08-28 07:06:00,
2013-08-28 03:10:00,74.0,-6.0,30.01,West,278,0.5,2.1,4,0.00,CLR,,0.00,WeatherDisplay:10.37,2013-08-28 07:10:00,
2013-08-28 03:11:00,74.0,-6.0,30.01,West,278,0.0,2.3,4,0.00,CLR,,0.00,WeatherDisplay:10.37,2013-08-28 07:11:00,
2013-08-28 03:12:00,74.0,-6.0,30.01,West,278,0.0,2.3,4,0.00,CLR,,0.00,WeatherDisplay:10.37,2013-08-28 07:12:00,
2013-08-28 03:15:00,74.1,-5.9,30.01,WNW,285,0.7,4.6,4,0.00,CLR,,0.00,WeatherDisplay:10.37,2013-08-28 07:15:00,
2013-08-28 03:16:00,74.0,-1.3,30.01,WNW,292,1.0,4.6,5,0.00,CLR,,0.00,WeatherDisplay:10.37,2013-08-28 07:16:00,
2013-08-28 03:17:00,74.0,-6.0,30.01,WNW,292,1.0,4.6,4,0.00,CLR,,0.00,WeatherDisplay:10.37,2013-08-28 07:17:00,
2013-08-28 03:20:00,73.8,-1.5,30.01,NW,305,0.6,3.5,5,0.00,CLR,,0.00,WeatherDisplay:10.37,2013-08-28 07:20:00,
2013-08-28 03:21:00,74.0,-1.3,30.01,NW,305,0.6,3.5,5,0.00,CLR,,0.00,WeatherDisplay:10.37,2013-08-28 07:21:00,
2013-08-28 03:22:00,74.0,-1.3,30.01,NW,323,1.2,4.3,5,0.00,CLR,,0.00,WeatherDisplay:10.37,2013-08-28 07:22:00,
2013-08-28 03:26:00,73.8,-1.5,30.01,NW,316,2.8,6.9,5,0.00,CLR,,0.00,WeatherDisplay:10.37,2013-08-28 07:26:00,
2013-08-28 03:27:00,73.6,-1.6,30.01,North,3,2.8,4.6,5,0.00,CLR,,0.00,WeatherDisplay:10.37,2013-08-28 07:27:00,
2013-08-28 03:31:00,73.9,-6.1,30.01,NNW,339,3.7,6.9,4,0.00,CLR,,0.00,WeatherDisplay:10.37,2013-08-28 07:31:00,
2013-08-28 03:32:00,74.0,-6.0,30.01,NW,312,2.5,6.9,4,0.00,CLR,,0.00,WeatherDisplay:10.37,2013-08-28 07:32:00,
2013-08-28 03:33:00,74.1,-5.9,30.01,North,353,4.5,6.9,4,0.00,CLR,,0.00,WeatherDisplay:10.37,2013-08-28 07:33:00,
2013-08-28 03:37:00,74.1,-5.9,30.01,WNW,299,4.0,7.0,4,0.00,CLR,,0.00,WeatherDisplay:10.37,2013-08-28 07:37:00,
2013-08-28 03:38:00,74.1,-5.9,30.01,NW,325,5.3,6.9,4,0.00,CLR,,0.00,WeatherDisplay:10.37,2013-08-28 07:38:00,
2013-08-28 03:39:00,73.8,-6.1,30.01,NNW,342,1.7,6.9,4,0.00,CLR,,0.00,WeatherDisplay:10.37,2013-08-28 07:39:00,
2013-08-28 03:42:00,74.1,-5.9,30.01,West,277,0.6,3.5,4,0.00,CLR,,0.00,WeatherDisplay:10.37,2013-08-28 07:42:00,
2013-08-28 03:43:00,74.1,-5.9,30.01,NNW,332,1.0,7.1,4,0.00,CLR,,0.00,WeatherDisplay:10.37,2013-08-28 07:43:00,
2013-08-28 03:45:00,74.0,-6.0,30.01,NW,313,4.2,6.9,4,0.00,CLR,,0.00,WeatherDisplay:10.37,2013-08-28 07:45:00,
2013-08-28 03:48:00,74.1,-1.3,30.01,NW,304,0.6,2.7,5,0.00,CLR,,0.00,WeatherDisplay:10.37,2013-08-28 07:48:00,
2013-08-28 03:50:00,73.9,-1.4,30.01,WNW,285,0.0,3.5,5,0.00,CLR,,0.00,WeatherDisplay:10.37,2013-08-28 07:50:00,
2013-08-28 03:53:00,74.0,-1.3,30.01,NNW,328,1.9,3.5,5,0.00,CLR,,0.00,WeatherDisplay:10.37,2013-08-28 07:53:00,
2013-08-28 03:54:00,73.9,-1.4,30.01,NNW,328,0.1,3.5,5,0.00,CLR,,0.00,WeatherDisplay:10.37,2013-08-28 07:54:00,
2013-08-28 03:55:00,73.8,-1.5,30.01,NNW,328,0.0,0.0,5,0.00,CLR,,0.00,WeatherDisplay:10.37,2013-08-28 07:55:00,
2013-08-28 03:58:00,74.0,-1.3,30.01,NNW,328,0.0,0.0,5,0.00,CLR,,0.00,WeatherDisplay:10.37,2013-08-28 07:58:00,
2013-08-28 03:59:00,73.9,-1.4,30.01,NNW,328,0.0,0.0,5,0.00,CLR,,0.00,WeatherDisplay:10.37,2013-08-28 07:59:00,
2013-08-28 04:00:00,73.7,-1.5,30.01,NNW,328,0.0,0.0,5,0.00,CLR,,0.00,WeatherDisplay:10.37,2013-08-28 08:00:00,
2013-08-28 04:01:00,73.7,-1.5,30.01,NNW,328,0.0,0.0,5,0.00,CLR,,0.00,WeatherDisplay:10.37,2013-08-28 08:01:00,
2013-08-28 04:03:00,73.5,2.2,30.01,NNW,328,0.0,0.0,6,0.00,CLR,,0.00,WeatherDisplay:10.37,2013-08-28 08:03:00,
2013-08-28 04:04:00,73.5,2.2,30.01,NNW,328,0.0,0.0,6,0.00,CLR,,0.00,WeatherDisplay:10.37,2013-08-28 08:04:00,
2013-08-28 04:06:00,73.3,2.1,30.01,NNW,328,0.0,0.0,6,0.00,CLR,,0.00,WeatherDisplay:10.37,2013-08-28 08:06:00,
2013-08-28 04:08:00,72.9,1.8,30.01,NNW,328,0.0,0.0,6,0.00,CLR,,0.00,WeatherDisplay:10.37,2013-08-28 08:08:00,
2013-08-28 04:09:00,72.9,1.8,30.01,NNW,328,0.0,0.0,6,0.00,CLR,,0.00,WeatherDisplay:10.37,2013-08-28 08:09:00,
2013-08-28 04:11:00,72.8,1.7,30.01,NNW,328,0.0,0.0,6,0.00,CLR,,0.00,WeatherDisplay:10.37,2013-08-28 08:11:00,
2013-08-28 04:14:00,72.9,1.8,30.01,NNW,328,0.0,0.0,6,0.00,CLR,,0.00,WeatherDisplay:10.37,2013-08-28 08:14:00,
2013-08-28 04:16:00,72.7,5.0,30.00,NW,326,0.0,0.0,7,0.00,CLR,,0.00,WeatherDisplay:10.37,2013-08-28 08:16:00,
2013-08-28 04:18:00,72.9,5.1,30.00,NW,312,1.7,5.0,7,0.00,CLR,,0.00,WeatherDisplay:10.37,2013-08-28 08:18:00,
2013-08-28 04:19:00,72.8,5.0,30.01,NW,304,0.5,4.6,7,0.00,CLR,,0.00,WeatherDisplay:10.37,2013-08-28 08:19:00,
2013-08-28 04:20:00,72.8,5.0,30.01,NNW,340,3.2,4.6,7,0.00,CLR,,0.00,WeatherDisplay:10.37,2013-08-28 08:20:00,
2013-08-28 04:23:00,72.8,1.7,30.00,NW,322,2.1,4.6,6,0.00,CLR,,0.00,WeatherDisplay:10.37,2013-08-28 08:23:00,
2013-08-28 04:24:00,72.9,1.8,30.00,NW,308,1.6,4.6,6,0.00,CLR,,0.00,WeatherDisplay:10.37,2013-08-28 08:24:00,
2013-08-28 04:25:00,73.0,1.8,30.00,NW,308,0.0,4.6,6,0.00,CLR,,0.00,WeatherDisplay:10.37,2013-08-28 08:25:00,
2013-08-28 04:28:00,73.1,1.9,30.01,NW,326,0.6,4.6,6,0.00,CLR,,0.00,WeatherDisplay:10.37,2013-08-28 08:28:00,
2013-08-28 04:29:00,72.9,1.8,30.01,NW,326,0.4,3.5,6,0.00,CLR,,0.00,WeatherDisplay:10.37,2013-08-28 08:29:00,
2013-08-28 04:30:00,72.9,1.8,30.01,NW,326,0.0,0.0,6,0.00,CLR,,0.00,WeatherDisplay:10.37,2013-08-28 08:30:00,
2013-08-28 04:31:00,72.9,1.8,30.00,NW,326,0.0,0.0,6,0.00,CLR,,0.00,WeatherDisplay:10.37,2013-08-28 08:31:00,
2013-08-28 04:34:00,72.7,1.6,30.01,North,360,1.1,3.5,6,0.00,CLR,,0.00,WeatherDisplay:10.37,2013-08-28 08:34:00,
2013-08-28 04:35:00,73.0,1.8,30.01,NW,305,0.6,3.5,6,0.00,CLR,,0.00,WeatherDisplay:10.37,2013-08-28 08:35:00,
2013-08-28 04:37:00,73.2,2.0,30.01,NW,305,0.0,0.0,6,0.00,CLR,,0.00,WeatherDisplay:10.37,2013-08-28 08:37:00,
2013-08-28 04:39:00,72.9,1.8,30.01,North,354,2.6,6.9,6,0.00,CLR,,0.00,WeatherDisplay:10.37,2013-08-28 08:39:00,
2013-08-28 04:40:00,73.3,2.1,30.01,NW,325,3.7,6.9,6,0.00,CLR,,0.00,WeatherDisplay:10.37,2013-08-28 08:40:00,
2013-08-28 04:43:00,73.0,1.8,30.00,NW,325,0.0,0.0,6,0.00,CLR,,0.00,WeatherDisplay:10.37,2013-08-28 08:43:00,
2013-08-28 04:44:00,73.4,2.1,30.00,NW,325,0.0,0.0,6,0.00,CLR,,0.00,WeatherDisplay:10.37,2013-08-28 08:44:00,
2013-08-28 04:45:00,73.4,2.1,30.00,NW,325,0.0,0.0,6,0.00,CLR,,0.00,WeatherDisplay:10.37,2013-08-28 08:45:00,
2013-08-28 04:48:00,73.4,2.1,30.00,North,359,1.4,3.4,6,0.00,CLR,,0.00,WeatherDisplay:10.37,2013-08-28 08:48:00,
2013-08-28 04:50:00,73.3,2.1,30.00,NW,322,2.1,5.8,6,0.00,CLR,,0.00,WeatherDisplay:10.37,2013-08-28 08:50:00,
2013-08-28 04:51:00,73.5,2.2,30.00,NW,322,0.0,5.8,6,0.00,CLR,,0.00,WeatherDisplay:10.37,2013-08-28 08:51:00,
2013-08-28 04:53:00,73.3,2.1,30.00,North,354,2.1,5.8,6,0.00,CLR,,0.00,WeatherDisplay:10.37,2013-08-28 08:53:00,
2013-08-28 04:55:00,73.4,2.1,30.00,NW,325,3.0,6.9,6,0.00,CLR,,0.00,WeatherDisplay:10.37,2013-08-28 08:55:00,
2013-08-28 04:56:00,73.4,2.1,30.00,North,352,3.0,6.9,6,0.00,CLR,,0.00,WeatherDisplay:10.37,2013-08-28 08:56:00,
2013-08-28 04:59:00,73.4,2.1,30.00,North,360,4.8,6.9,6,0.00,CLR,,0.00,WeatherDisplay:10.37,2013-08-28 08:59:00,
2013-08-28 05:00:00,73.3,2.1,30.00,NW,315,4.8,7.0,6,0.00,CLR,,0.00,WeatherDisplay:10.37,2013-08-28 09:00:00,
2013-08-28 05:01:00,73.2,2.0,30.00,NNW,328,4.8,6.9,6,0.00,CLR,,0.00,WeatherDisplay:10.37,2013-08-28 09:01:00,
2013-08-28 05:02:00,73.2,2.0,30.00,North,349,4.5,6.9,6,0.00,CLR,,0.00,WeatherDisplay:10.37,2013-08-28 09:02:00,
2013-08-28 05:04:00,73.3,2.1,30.00,North,350,2.1,6.9,6,0.00,CLR,,0.00,WeatherDisplay:10.37,2013-08-28 09:04:00,
2013-08-28 05:05:00,73.4,2.1,30.00,NNW,347,4.5,5.8,6,0.00,CLR,,0.00,WeatherDisplay:10.37,2013-08-28 09:05:00,
2013-08-28 05:06:00,73.2,2.0,30.00,NW,306,5.6,8.1,6,0.00,CLR,,0.00,WeatherDisplay:10.37,2013-08-28 09:06:00,
2013-08-28 05:07:00,73.3,2.1,30.00,WNW,288,5.1,8.1,6,0.00,CLR,,0.00,WeatherDisplay:10.37,2013-08-28 09:07:00,
2013-08-28 05:09:00,73.2,2.0,30.00,NNW,333,1.6,4.6,6,0.00,CLR,,0.00,WeatherDisplay:10.37,2013-08-28 09:09:00,
2013-08-28 05:10:00,73.4,2.1,30.00,NW,319,3.4,5.8,6,0.00,CLR,,0.00,WeatherDisplay:10.37,2013-08-28 09:10:00,
2013-08-28 05:11:00,73.3,2.1,30.00,NW,304,3.2,5.8,6,0.00,CLR,,0.00,WeatherDisplay:10.37,2013-08-28 09:11:00,
2013-08-28 05:12:00,73.3,2.1,30.00,North,354,3.9,4.8,6,0.00,CLR,,0.00,WeatherDisplay:10.37,2013-08-28 09:12:00,
2013-08-28 05:15:00,73.4,2.1,30.00,West,280,2.1,5.8,6,0.00,CLR,,0.00,WeatherDisplay:10.37,2013-08-28 09:15:00,
2013-08-28 05:16:00,73.2,2.0,30.00,West,280,2.3,5.8,6,0.00,CLR,,0.00,WeatherDisplay:10.37,2013-08-28 09:16:00,
2013-08-28 05:17:00,73.3,2.1,30.00,West,280,1.6,5.8,6,0.00,CLR,,0.00,WeatherDisplay:10.37,2013-08-28 09:17:00,
2013-08-28 05:18:00,73.4,2.1,30.00,West,280,0.0,3.5,6,0.00,CLR,,0.00,WeatherDisplay:10.37,2013-08-28 09:18:00,
2013-08-28 05:20:00,73.3,2.1,30.00,WNW,302,0.0,0.0,6,0.00,CLR,,0.00,WeatherDisplay:10.37,2013-08-28 09:20:00,
2013-08-28 05:21:00,73.5,2.2,30.00,WNW,291,0.6,4.6,6,0.00,CLR,,0.00,WeatherDisplay:10.37,2013-08-28 09:21:00,
2013-08-28 05:23:00,73.4,2.1,30.00,WSW,237,0.0,0.0,6,0.00,CLR,,0.00,WeatherDisplay:10.37,2013-08-28 09:23:00,
2013-08-28 05:26:00,73.2,2.0,30.00,WNW,292,2.7,4.6,6,0.00,CLR,,0.00,WeatherDisplay:10.37,2013-08-28 09:26:00,
2013-08-28 05:28:00,73.3,2.1,30.00,WNW,292,0.0,0.0,6,0.00,CLR,,0.00,WeatherDisplay:10.37,2013-08-28 09:28:00,
2013-08-28 05:29:00,73.2,2.0,30.00,NW,315,1.6,3.0,6,0.00,CLR,,0.00,WeatherDisplay:10.37,2013-08-28 09:29:00,
2013-08-28 05:31:00,73.1,1.9,30.00,NNW,337,1.3,3.5,6,0.00,CLR,,0.00,WeatherDisplay:10.37,2013-08-28 09:31:00,
2013-08-28 05:33:00,73.0,1.8,30.00,NNW,337,0.0,0.0,6,0.00,CLR,,0.00,WeatherDisplay:10.37,2013-08-28 09:33:00,
2013-08-28 05:34:00,73.0,1.8,30.00,NNW,337,0.0,0.0,6,0.00,CLR,,0.00,WeatherDisplay:10.37,2013-08-28 09:34:00,
2013-08-28 05:36:00,72.9,1.8,30.00,NNW,346,0.0,0.0,6,0.00,CLR,,0.00,WeatherDisplay:10.37,2013-08-28 09:36:00,
2013-08-28 05:37:00,73.3,2.1,30.00,NNW,346,0.0,0.0,6,0.00,CLR,,0.00,WeatherDisplay:10.37,2013-08-28 09:37:00,
2013-08-28 05:38:00,73.2,2.0,30.00,North,10,2.7,5.8,6,0.00,CLR,,0.00,WeatherDisplay:10.37,2013-08-28 09:38:00,
2013-08-28 05:39:00,73.2,2.0,30.00,NNE,13,1.9,6.2,6,0.00,CLR,,0.00,WeatherDisplay:10.37,2013-08-28 09:39:00,
2013-08-28 05:41:00,73.0,1.8,30.00,NW,323,0.9,4.6,6,0.00,CLR,,0.00,WeatherDisplay:10.37,2013-08-28 09:41:00,
2013-08-28 05:42:00,73.3,2.1,30.00,NNW,340,0.0,4.6,6,0.00,CLR,,0.00,WeatherDisplay:10.37,2013-08-28 09:42:00,
2013-08-28 05:44:00,73.1,1.9,30.00,NNW,340,0.0,0.0,6,0.00,CLR,,0.00,WeatherDisplay:10.37,2013-08-28 09:44:00,
2013-08-28 05:45:00,73.1,1.9,30.00,NNW,340,0.0,0.0,6,0.00,CLR,,0.00,WeatherDisplay:10.37,2013-08-28 09:45:00,
2013-08-28 05:46:00,73.3,2.1,30.00,NNW,336,4.8,6.9,6,0.00,CLR,,0.00,WeatherDisplay:10.37,2013-08-28 09:46:00,
2013-08-28 05:47:00,73.4,2.1,30.00,NNW,329,0.4,5.8,6,0.00,CLR,,0.00,WeatherDisplay:10.37,2013-08-28 09:47:00,
2013-08-28 05:49:00,73.3,2.1,30.00,NW,311,1.0,2.3,6,0.00,CLR,,0.00,WeatherDisplay:10.37,2013-08-28 09:49:00,
2013-08-28 05:50:00,73.4,2.1,30.00,North,360,2.1,4.6,6,0.00,CLR,,0.00,WeatherDisplay:10.37,2013-08-28 09:50:00,
2013-08-28 05:51:00,73.4,2.1,30.00,North,354,2.7,5.8,6,0.00,CLR,,0.00,WeatherDisplay:10.37,2013-08-28 09:51:00,
2013-08-28 05:52:00,73.1,1.9,30.00,North,354,2.4,5.8,6,0.00,CLR,,0.00,WeatherDisplay:10.37,2013-08-28 09:52:00,
2013-08-28 05:53:00,73.3,2.1,30.00,North,6,3.0,8.1,6,0.00,CLR,,0.00,WeatherDisplay:10.37,2013-08-28 09:53:00,
2013-08-28 05:54:00,73.4,2.1,30.00,NW,326,2.8,8.1,6,0.00,CLR,,0.00,WeatherDisplay:10.37,2013-08-28 09:54:00,
2013-08-28 05:56:00,73.1,1.9,30.00,NW,326,0.0,0.0,6,0.00,CLR,,0.00,WeatherDisplay:10.37,2013-08-28 09:56:00,
2013-08-28 05:57:00,73.1,1.9,30.00,NW,326,0.0,0.0,6,0.00,CLR,,0.00,WeatherDisplay:10.37,2013-08-28 09:57:00,
2013-08-28 05:59:00,73.1,1.9,30.00,North,359,0.8,8.1,6,0.00,CLR,,0.00,WeatherDisplay:10.37,2013-08-28 09:59:00,
2013-08-28 06:01:00,73.4,2.1,30.00,North,349,0.5,3.5,6,0.00,CLR,,0.00,WeatherDisplay:10.37,2013-08-28 10:01:00,
2013-08-28 06:02:00,73.2,5.3,30.00,North,360,0.9,3.5,7,0.00,CLR,,0.00,WeatherDisplay:10.37,2013-08-28 10:02:00,
2013-08-28 06:04:00,73.3,2.1,30.00,NNW,328,1.0,4.6,6,0.00,CLR,,0.00,WeatherDisplay:10.37,2013-08-28 10:04:00,
2013-08-28 06:07:00,73.3,2.1,30.00,North,360,0.0,4.6,6,0.00,CLR,,0.00,WeatherDisplay:10.37,2013-08-28 10:07:00,
2013-08-28 06:09:00,73.3,2.1,30.00,NNW,335,2.9,4.6,6,0.00,CLR,,0.00,WeatherDisplay:10.37,2013-08-28 10:09:00,
2013-08-28 06:11:00,73.5,2.2,30.00,NNW,335,0.0,0.0,6,0.00,CLR,,0.00,WeatherDisplay:10.37,2013-08-28 10:11:00,
2013-08-28 06:12:00,73.7,2.4,30.00,NNW,335,0.0,0.0,6,0.00,CLR,,0.00,WeatherDisplay:10.37,2013-08-28 10:12:00,
2013-08-28 06:13:00,73.5,2.2,30.00,NNW,335,0.0,0.0,6,0.00,CLR,,0.00,WeatherDisplay:10.37,2013-08-28 10:13:00,
2013-08-28 06:14:00,73.4,2.1,30.00,NNW,335,0.0,0.0,6,0.00,CLR,,0.00,WeatherDisplay:10.37,2013-08-28 10:14:00,
2013-08-28 06:17:00,73.3,2.1,30.01,NNW,335,0.0,0.0,6,0.00,CLR,,0.00,WeatherDisplay:10.37,2013-08-28 10:17:00,
2013-08-28 06:19:00,73.5,2.2,30.01,West,265,1.1,3.5,6,0.00,CLR,,0.00,WeatherDisplay:10.37,2013-08-28 10:19:00,
2013-08-28 06:22:00,73.5,2.2,30.01,West,265,0.0,0.0,6,0.00,CLR,,0.00,WeatherDisplay:10.37,2013-08-28 10:22:00,
2013-08-28 06:24:00,73.8,2.4,30.01,WSW,251,1.5,5.8,6,0.00,CLR,,0.00,WeatherDisplay:10.37,2013-08-28 10:24:00,
2013-08-28 06:27:00,73.4,2.1,30.01,North,3,3.3,5.8,6,0.00,CLR,,0.00,WeatherDisplay:10.37,2013-08-28 10:27:00,
2013-08-28 06:29:00,73.7,2.4,30.01,NW,305,1.2,4.6,6,0.00,CLR,,0.00,WeatherDisplay:10.37,2013-08-28 10:29:00,
2013-08-28 06:30:00,73.4,2.1,30.01,NW,305,0.0,3.5,6,0.00,CLR,,0.00,WeatherDisplay:10.37,2013-08-28 10:30:00,
2013-08-28 06:32:00,73.8,2.4,30.01,WNW,282,0.0,0.0,6,0.00,CLR,,0.00,WeatherDisplay:10.37,2013-08-28 10:32:00,
2013-08-28 06:33:00,73.3,2.1,30.01,WNW,301,0.4,3.0,6,0.00,CLR,,0.00,WeatherDisplay:10.37,2013-08-28 10:33:00,
2013-08-28 06:35:00,73.3,2.1,30.01,NW,313,1.7,4.9,6,0.00,CLR,,0.00,WeatherDisplay:10.37,2013-08-28 10:35:00,
2013-08-28 06:36:00,73.5,2.2,30.01,WNW,284,4.6,5.8,6,0.00,CLR,,0.00,WeatherDisplay:10.37,2013-08-28 10:36:00,
2013-08-28 06:37:00,73.5,2.2,30.01,NW,319,2.7,5.8,6,0.00,CLR,,0.00,WeatherDisplay:10.37,2013-08-28 10:37:00,
2013-08-28 06:38:00,73.8,2.4,30.01,WNW,295,3.6,5.8,6,0.00,CLR,,0.00,WeatherDisplay:10.37,2013-08-28 10:38:00,
2013-08-28 06:40:00,73.7,2.4,30.01,North,350,4.1,6.3,6,0.00,CLR,,0.00,WeatherDisplay:10.37,2013-08-28 10:40:00,
2013-08-28 06:41:00,73.5,2.2,30.01,North,357,5.3,6.9,6,0.00,CLR,,0.00,WeatherDisplay:10.37,2013-08-28 10:41:00,
2013-08-28 06:43:00,73.5,2.2,30.01,NNW,337,2.6,4.6,6,0.00,CLR,,0.00,WeatherDisplay:10.37,2013-08-28 10:43:00,
2013-08-28 06:45:00,73.5,2.2,30.01,NW,304,3.1,5.8,6,0.00,CLR,,0.00,WeatherDisplay:10.37,2013-08-28 10:45:00,
2013-08-28 06:46:00,73.5,2.2,30.01,NNW,344,2.1,4.6,6,0.00,CLR,,0.00,WeatherDisplay:10.37,2013-08-28 10:46:00,
2013-08-28 06:48:00,73.5,2.2,30.01,NW,326,1.9,5.8,6,0.00,CLR,,0.00,WeatherDisplay:10.37,2013-08-28 10:48:00,
2013-08-28 06:50:00,73.6,2.3,30.01,NNW,329,2.6,5.8,6,0.00,CLR,,0.00,WeatherDisplay:10.37,2013-08-28 10:50:00,
2013-08-28 06:51:00,73.5,2.2,30.01,NNW,332,5.3,6.9,6,0.00,CLR,,0.00,WeatherDisplay:10.37,2013-08-28 10:51:00,
2013-08-28 06:53:00,73.3,2.1,30.01,WNW,296,4.8,6.9,6,0.00,CLR,,0.00,WeatherDisplay:10.37,2013-08-28 10:53:00,
2013-08-28 06:55:00,73.5,2.2,30.01,North,1,4.2,5.8,6,0.00,CLR,,0.00,WeatherDisplay:10.37,2013-08-28 10:55:00,
2013-08-28 06:57:00,73.7,2.4,30.02,NNW,335,5.2,5.8,6,0.00,CLR,,0.00,WeatherDisplay:10.37,2013-08-28 10:57:00,
2013-08-28 06:58:00,73.5,2.2,30.02,NNW,346,5.9,8.1,6,0.00,CLR,,0.00,WeatherDisplay:10.37,2013-08-28 10:58:00,
2013-08-28 06:59:00,73.5,2.2,30.02,NW,325,3.0,9.2,6,0.00,CLR,,0.00,WeatherDisplay:10.37,2013-08-28 10:59:00,
2013-08-28 07:01:00,73.8,2.4,30.02,NW,318,5.7,10.4,6,0.00,CLR,,0.00,WeatherDisplay:10.37,2013-08-28 11:01:00,
2013-08-28 07:02:00,73.6,2.3,30.02,NNW,328,4.7,6.9,6,0.00,CLR,,0.00,WeatherDisplay:10.37,2013-08-28 11:02:00,
2013-08-28 07:03:00,73.7,2.4,30.02,NW,315,3.6,8.1,6,0.00,CLR,,0.00,WeatherDisplay:10.37,2013-08-28 11:03:00,
2013-08-28 07:05:00,73.7,2.4,30.02,NNW,339,2.2,8.8,6,0.00,CLR,,0.00,WeatherDisplay:10.37,2013-08-28 11:05:00,
2013-08-28 07:06:00,74.0,2.6,30.02,NW,313,2.9,6.1,6,0.00,CLR,,0.00,WeatherDisplay:10.37,2013-08-28 11:06:00,
2013-08-28 07:08:00,73.9,2.5,30.02,North,1,4.0,5.8,6,0.00,CLR,,0.00,WeatherDisplay:10.37,2013-08-28 11:08:00,
2013-08-28 07:09:00,74.0,2.6,30.02,North,352,2.2,5.8,6,0.00,CLR,,0.00,WeatherDisplay:10.37,2013-08-28 11:09:00,
2013-08-28 07:11:00,73.8,2.4,30.02,NNW,328,4.3,6.9,6,0.00,CLR,,0.00,WeatherDisplay:10.37,2013-08-28 11:11:00,
2013-08-28 07:13:00,73.7,2.4,30.03,NW,313,4.2,5.8,6,0.00,CLR,,0.00,WeatherDisplay:10.37,2013-08-28 11:13:00,
2013-08-28 07:14:00,73.9,2.5,30.02,North,1,3.1,5.8,6,0.00,CLR,,0.00,WeatherDisplay:10.37,2013-08-28 11:14:00,
2013-08-28 07:15:00,73.7,2.4,30.03,NW,308,4.4,6.9,6,0.00,CLR,,0.00,WeatherDisplay:10.37,2013-08-28 11:15:00,
2013-08-28 07:16:00,73.9,2.5,30.03,NNW,343,5.2,6.9,6,0.00,CLR,,0.00,WeatherDisplay:10.37,2013-08-28 11:16:00,
2013-08-28 07:18:00,73.8,2.4,30.03,NW,308,3.9,5.8,6,0.00,CLR,,0.00,WeatherDisplay:10.37,2013-08-28 11:18:00,
2013-08-28 07:19:00,73.8,2.4,30.03,NW,304,4.9,5.8,6,0.00,CLR,,0.00,WeatherDisplay:10.37,2013-08-28 11:19:00,
2013-08-28 07:20:00,73.8,2.4,30.02,NNW,328,2.0,4.7,6,0.00,CLR,,0.00,WeatherDisplay:10.37,2013-08-28 11:20:00,
2013-08-28 07:21:00,73.8,2.4,30.02,NW,311,2.6,6.3,6,0.00,CLR,,0.00,WeatherDisplay:10.37,2013-08-28 11:21:00,
2013-08-28 07:22:00,73.9,2.5,30.02,NW,311,6.3,9.1,6,0.00,CLR,,0.00,WeatherDisplay:10.37,2013-08-28 11:22:00,
2013-08-28 07:23:00,73.7,-1.5,30.02,WNW,296,5.0,5.8,5,0.00,CLR,,0.00,WeatherDisplay:10.37,2013-08-28 11:23:00,
2013-08-28 07:24:00,74.1,-1.3,30.02,NW,319,2.3,5.8,5,0.00,CLR,,0.00,WeatherDisplay:10.37,2013-08-28 11:24:00,
2013-08-28 07:26:00,74.0,2.6,30.02,NW,319,0.0,0.0,6,0.00,CLR,,0.00,WeatherDisplay:10.37,2013-08-28 11:26:00,
2013-08-28 07:27:00,74.0,-1.3,30.02,NW,308,2.1,6.9,5,0.00,CLR,,0.00,WeatherDisplay:10.37,2013-08-28 11:27:00,
2013-08-28 07:28:00,74.0,-1.3,30.02,NW,319,1.3,5.8,5,0.00,CLR,,0.00,WeatherDisplay:10.37,2013-08-28 11:28:00,
2013-08-28 07:29:00,73.9,2.5,30.02,NW,305,0.6,5.8,6,0.00,CLR,,0.00,WeatherDisplay:10.37,2013-08-28 11:29:00,
2013-08-28 07:31:00,74.1,-1.3,30.02,NW,309,2.4,5.8,5,0.00,CLR,,0.00,WeatherDisplay:10.37,2013-08-28 11:31:00,
2013-08-28 07:32:00,73.8,2.4,30.02,NW,309,2.2,5.8,6,0.00,CLR,,0.00,WeatherDisplay:10.37,2013-08-28 11:32:00,
2013-08-28 07:33:00,74.0,2.6,30.02,NNW,347,2.3,5.8,6,0.00,CLR,,0.00,WeatherDisplay:10.37,2013-08-28 11:33:00,
2013-08-28 07:34:00,74.0,2.6,30.02,NW,308,1.4,6.2,6,0.00,CLR,,0.00,WeatherDisplay:10.37,2013-08-28 11:34:00,
2013-08-28 07:36:00,74.1,2.6,30.02,WNW,295,3.1,5.8,6,0.00,CLR,,0.00,WeatherDisplay:10.37,2013-08-28 11:36:00,
2013-08-28 07:37:00,74.0,-1.3,30.02,WNW,295,1.9,5.8,5,0.00,CLR,,0.00,WeatherDisplay:10.37,2013-08-28 11:37:00,
2013-08-28 07:38:00,74.0,2.6,30.02,WNW,295,0.0,0.0,6,0.00,CLR,,0.00,WeatherDisplay:10.37,2013-08-28 11:38:00,
2013-08-28 07:39:00,74.1,-1.3,30.02,West,265,1.3,0.0,5,0.00,CLR,,0.00,WeatherDisplay:10.37,2013-08-28 11:39:00,
2013-08-28 07:42:00,74.1,-1.3,30.02,NW,318,0.7,4.6,5,0.00,CLR,,0.00,WeatherDisplay:10.37,2013-08-28 11:42:00,
2013-08-28 07:43:00,74.1,2.6,30.02,NW,318,0.0,0.0,6,0.00,CLR,,0.00,WeatherDisplay:10.37,2013-08-28 11:43:00,
2013-08-28 07:44:00,74.1,2.6,30.02,NW,318,0.0,0.0,6,0.00,CLR,,0.00,WeatherDisplay:10.37,2013-08-28 11:44:00,
2013-08-28 07:47:00,74.1,2.6,30.02,NW,325,0.0,0.0,6,0.00,CLR,,0.00,WeatherDisplay:10.37,2013-08-28 11:47:00,
2013-08-28 07:48:00,74.1,2.6,30.02,NW,325,0.0,0.0,6,0.00,CLR,,0.00,WeatherDisplay:10.37,2013-08-28 11:48:00,
2013-08-28 07:49:00,74.1,2.6,30.02,NW,325,0.0,0.0,6,0.00,CLR,,0.00,WeatherDisplay:10.37,2013-08-28 11:49:00,
2013-08-28 07:52:00,74.1,2.6,30.02,NW,325,0.0,0.0,6,0.00,CLR,,0.00,WeatherDisplay:10.37,2013-08-28 11:52:00,
2013-08-28 07:53:00,74.0,2.6,30.02,NW,325,0.0,0.0,6,0.00,CLR,,0.00,WeatherDisplay:10.37,2013-08-28 11:53:00,
2013-08-28 07:54:00,74.1,2.6,30.03,NW,325,0.0,0.0,6,0.00,CLR,,0.00,WeatherDisplay:10.37,2013-08-28 11:54:00,
2013-08-28 07:55:00,74.0,2.6,30.03,NW,315,0.5,3.5,6,0.00,CLR,,0.00,WeatherDisplay:10.37,2013-08-28 11:55:00,
2013-08-28 07:57:00,74.1,2.6,30.03,NNW,332,1.2,5.8,6,0.00,CLR,,0.00,WeatherDisplay:10.37,2013-08-28 11:57:00,
2013-08-28 07:58:00,74.1,2.6,30.03,NNW,332,0.0,5.8,6,0.00,CLR,,0.00,WeatherDisplay:10.37,2013-08-28 11:58:00,
2013-08-28 07:59:00,74.1,2.6,30.03,NNW,332,0.0,0.0,6,0.00,CLR,,0.00,WeatherDisplay:10.37,2013-08-28 11:59:00,
2013-08-28 08:00:00,74.1,2.6,30.03,North,4,2.0,6.1,6,0.00,CLR,,0.00,WeatherDisplay:10.37,2013-08-28 12:00:00,
2013-08-28 08:03:00,74.0,2.6,30.03,North,356,1.9,3.5,6,0.00,CLR,,0.00,WeatherDisplay:10.37,2013-08-28 12:03:00,
2013-08-28 08:04:00,74.1,2.6,30.03,North,353,4.6,6.9,6,0.00,CLR,,0.00,WeatherDisplay:10.37,2013-08-28 12:04:00,
2013-08-28 08:05:00,74.1,2.6,30.03,NNE,23,3.6,6.9,6,0.00,CLR,,0.00,WeatherDisplay:10.37,2013-08-28 12:05:00,
2013-08-28 08:06:00,74.1,2.6,30.03,NNE,23,0.0,4.6,6,0.00,CLR,,0.00,WeatherDisplay:10.37,2013-08-28 12:06:00,
2013-08-28 08:08:00,74.1,2.6,30.03,North,11,2.3,4.6,6,0.00,CLR,,0.00,WeatherDisplay:10.37,2013-08-28 12:08:00,
2013-08-28 08:09:00,74.1,2.6,30.03,NW,325,1.4,5.0,6,0.00,CLR,,0.00,WeatherDisplay:10.37,2013-08-28 12:09:00,
2013-08-28 08:11:00,74.1,2.6,30.03,WNW,291,2.8,5.8,6,0.00,CLR,,0.00,WeatherDisplay:10.37,2013-08-28 12:11:00,
2013-08-28 08:13:00,74.1,2.6,30.03,NW,316,0.4,4.6,6,0.00,CLR,,0.00,WeatherDisplay:10.37,2013-08-28 12:13:00,
2013-08-28 08:14:00,74.1,2.6,30.03,NW,308,0.8,3.5,6,0.00,CLR,,0.00,WeatherDisplay:10.37,2013-08-28 12:14:00,
2013-08-28 08:16:00,74.1,2.6,30.03,NW,319,0.0,4.6,6,0.00,CLR,,0.00,WeatherDisplay:10.37,2013-08-28 12:16:00,
2013-08-28 08:18:00,74.1,2.6,30.03,NW,319,0.0,0.0,6,0.00,CLR,,0.00,WeatherDisplay:10.37,2013-08-28 12:18:00,
2013-08-28 08:19:00,74.1,2.6,30.03,NW,319,0.0,0.0,6,0.00,CLR,,0.00,WeatherDisplay:10.37,2013-08-28 12:19:00,
2013-08-28 08:20:00,74.1,2.6,30.03,NW,319,0.0,0.0,6,0.00,CLR,,0.00,WeatherDisplay:10.37,2013-08-28 12:20:00,
2013-08-28 08:21:00,74.1,2.6,30.03,NW,319,0.0,0.0,6,0.00,CLR,,0.00,WeatherDisplay:10.37,2013-08-28 12:21:00,
2013-08-28 08:22:00,74.1,2.6,30.03,NW,319,0.0,0.0,6,0.00,CLR,,0.00,WeatherDisplay:10.37,2013-08-28 12:22:00,
2013-08-28 08:23:00,74.1,2.6,30.03,NW,319,0.0,0.0,6,0.00,CLR,,0.00,WeatherDisplay:10.37,2013-08-28 12:23:00,
2013-08-28 08:24:00,74.1,2.6,30.03,NW,319,0.0,0.0,6,0.00,CLR,,0.00,WeatherDisplay:10.37,2013-08-28 12:24:00,
2013-08-28 08:25:00,74.1,2.6,30.03,NW,319,0.0,0.0,6,0.00,CLR,,0.00,WeatherDisplay:10.37,2013-08-28 12:25:00,
2013-08-28 08:26:00,74.1,2.6,30.03,NW,319,0.0,0.0,6,0.00,CLR,,0.00,WeatherDisplay:10.37,2013-08-28 12:26:00,
2013-08-28 08:27:00,74.1,2.6,30.03,NW,319,0.0,0.0,6,0.00,CLR,,0.00,WeatherDisplay:10.37,2013-08-28 12:27:00,
2013-08-28 08:28:00,74.1,2.6,30.03,NW,319,0.0,0.0,6,0.00,CLR,,0.00,WeatherDisplay:10.37,2013-08-28 12:28:00,
2013-08-28 08:29:00,74.1,2.6,30.03,NW,319,0.0,0.0,6,0.00,CLR,,0.00,WeatherDisplay:10.37,2013-08-28 12:29:00,
2013-08-28 08:30:00,74.1,6.0,30.03,NW,319,0.0,0.0,7,0.00,CLR,,0.00,WeatherDisplay:10.37,2013-08-28 12:30:00,
2013-08-28 08:32:00,74.1,2.6,30.03,NW,319,0.0,0.0,6,0.00,CLR,,0.00,WeatherDisplay:10.37,2013-08-28 12:32:00,
2013-08-28 08:33:00,74.1,6.0,30.03,NW,319,0.0,0.0,7,0.00,CLR,,0.00,WeatherDisplay:10.37,2013-08-28 12:33:00,
2013-08-28 08:34:00,74.1,6.0,30.03,NW,319,0.0,0.0,7,0.00,CLR,,0.00,WeatherDisplay:10.37,2013-08-28 12:34:00,
2013-08-28 08:35:00,74.1,6.0,30.03,NW,319,0.0,0.0,7,0.00,CLR,,0.00,WeatherDisplay:10.37,2013-08-28 12:35:00,
2013-08-28 08:37:00,74.1,6.0,30.03,NW,319,0.0,0.0,7,0.00,CLR,,0.00,WeatherDisplay:10.37,2013-08-28 12:37:00,
2013-08-28 08:38:00,73.9,5.9,30.03,NW,319,0.0,0.0,7,0.00,CLR,,0.00,WeatherDisplay:10.37,2013-08-28 12:38:00,
2013-08-28 08:39:00,74.1,6.0,30.03,NW,319,0.0,0.0,7,0.00,CLR,,0.00,WeatherDisplay:10.37,2013-08-28 12:39:00,
2013-08-28 08:40:00,74.1,6.0,30.03,NW,319,0.0,0.0,7,0.00,CLR,,0.00,WeatherDisplay:10.37,2013-08-28 12:40:00,
2013-08-28 08:42:00,74.1,9.0,30.03,NW,319,0.0,0.0,8,0.00,CLR,,0.00,WeatherDisplay:10.37,2013-08-28 12:42:00,
2013-08-28 08:44:00,73.9,8.8,30.03,NW,319,0.0,0.0,8,0.00,CLR,,0.00,WeatherDisplay:10.37,2013-08-28 12:44:00,
2013-08-28 08:45:00,74.1,11.6,30.03,NW,319,0.0,0.0,9,0.00,CLR,,0.00,WeatherDisplay:10.37,2013-08-28 12:45:00,
2013-08-28 08:47:00,74.0,11.5,30.03,NW,319,0.0,0.0,9,0.00,CLR,,0.00,WeatherDisplay:10.37,2013-08-28 12:47:00,
2013-08-28 08:50:00,74.0,13.9,30.03,NW,319,0.0,0.0,10,0.00,CLR,,0.00,WeatherDisplay:10.37,2013-08-28 12:50:00,
2013-08-28 08:51:00,73.9,13.8,30.04,NW,319,0.0,0.0,10,0.00,CLR,,0.00,WeatherDisplay:10.37,2013-08-28 12:51:00,
2013-08-28 08:52:00,74.0,16.1,30.03,NW,319,0.0,0.0,11,0.01,RA,,0.01,WeatherDisplay:10.37,2013-08-28 12:52:00,
2013-08-28 08:55:00,73.8,19.8,30.04,NW,319,0.0,0.0,13,0.01,RA,,0.01,WeatherDisplay:10.37,2013-08-28 12:55:00,
2013-08-28 08:56:00,73.7,19.8,30.04,NW,319,0.0,0.0,13,0.01,RA,,0.01,WeatherDisplay:10.37,2013-08-28 12:56:00,
2013-08-28 08:57:00,73.8,21.6,30.04,NW,319,0.0,0.0,14,0.01,RA,,0.01,WeatherDisplay:10.37,2013-08-28 12:57:00,
2013-08-28 09:00:00,73.3,22.8,30.04,NW,319,0.0,0.0,15,0.02,RA,,0.02,WeatherDisplay:10.37,2013-08-28 13:00:00,
2013-08-28 09:01:00,73.6,24.6,30.04,NW,319,0.0,0.0,16,0.02,RA,,0.02,WeatherDisplay:10.37,2013-08-28 13:01:00,
2013-08-28 09:02:00,73.2,24.3,30.04,NW,319,0.0,0.0,16,0.02,RA,,0.02,WeatherDisplay:10.37,2013-08-28 13:02:00,
2013-08-28 09:05:00,73.0,27.0,30.04,NW,319,0.0,0.0,18,0.03,RA,,0.03,WeatherDisplay:10.37,2013-08-28 13:05:00,
2013-08-28 09:06:00,73.4,28.6,30.05,NW,319,0.0,0.0,19,0.03,RA,,0.04,WeatherDisplay:10.37,2013-08-28 13:06:00,
2013-08-28 09:07:00,73.1,28.4,30.05,NW,319,0.0,0.0,19,0.03,RA,,0.04,WeatherDisplay:10.37,2013-08-28 13:07:00,
2013-08-28 09:08:00,73.1,28.4,30.05,NNW,344,0.3,5.8,19,0.04,RA,,0.04,WeatherDisplay:10.37,2013-08-28 13:08:00,
2013-08-28 09:10:00,72.8,31.7,30.05,NNW,336,2.4,5.8,22,0.05,RA,,0.06,WeatherDisplay:10.37,2013-08-28 13:10:00,
2013-08-28 09:11:00,72.8,31.7,30.05,NNW,336,1.4,5.8,22,0.06,RA,,0.06,WeatherDisplay:10.37,2013-08-28 13:11:00,
2013-08-28 09:12:00,73.1,33.1,30.05,NNW,336,0.0,0.0,23,0.06,RA,,0.06,WeatherDisplay:10.37,2013-08-28 13:12:00,
2013-08-28 09:13:00,73.0,34.1,30.05,NNW,336,0.0,0.0,24,0.07,RA,,0.07,WeatherDisplay:10.37,2013-08-28 13:13:00,
2013-08-28 09:16:00,72.8,35.9,30.05,NNW,336,0.0,0.0,26,0.08,RA,,0.08,WeatherDisplay:10.37,2013-08-28 13:16:00,
2013-08-28 09:17:00,72.5,36.6,30.05,NNW,336,0.0,0.0,27,0.09,RA,,0.09,WeatherDisplay:10.37,2013-08-28 13:17:00,
2013-08-28 09:18:00,72.9,37.9,30.05,NNW,336,0.0,0.0,28,0.09,RA,,0.09,WeatherDisplay:10.37,2013-08-28 13:18:00,
2013-08-28 09:21:00,72.8,38.7,30.05,NNW,336,0.0,0.0,29,0.10,RA,,0.11,WeatherDisplay:10.37,2013-08-28 13:21:00,
2013-08-28 09:22:00,72.4,39.2,30.05,NNW,336,0.0,0.0,30,0.11,RA,,0.11,WeatherDisplay:10.37,2013-08-28 13:22:00,
2013-08-28 09:23:00,72.5,39.3,30.05,NNW,336,0.0,0.0,30,0.11,RA,,0.11,WeatherDisplay:10.37,2013-08-28 13:23:00,
2013-08-28 09:24:00,72.4,40.0,30.05,NNW,336,0.0,0.0,31,0.11,RA,,0.11,WeatherDisplay:10.37,2013-08-28 13:24:00,
2013-08-28 09:26:00,72.5,40.1,30.05,NNW,336,0.0,0.0,31,0.12,RA,,0.12,WeatherDisplay:10.37,2013-08-28 13:26:00,
2013-08-28 09:27:00,72.3,40.0,30.05,NNW,336,0.0,0.0,31,0.12,RA,,0.12,WeatherDisplay:10.37,2013-08-28 13:27:00,
2013-08-28 09:28:00,72.5,40.1,30.05,NNW,336,0.0,0.0,31,0.12,RA,,0.12,WeatherDisplay:10.37,2013-08-28 13:28:00,
2013-08-28 09:29:00,72.5,40.1,30.05,NNW,336,0.0,0.0,31,0.12,RA,,0.12,WeatherDisplay:10.37,2013-08-28 13:29:00,
2013-08-28 09:31:00,72.3,40.0,30.05,NNW,336,0.0,0.0,31,0.12,RA,,0.12,WeatherDisplay:10.37,2013-08-28 13:31:00,
2013-08-28 09:32:00,72.4,39.2,30.05,NNW,336,0.0,0.0,30,0.12,RA,,0.12,WeatherDisplay:10.37,2013-08-28 13:32:00,
2013-08-28 09:33:00,72.6,39.4,30.05,NNW,336,0.0,0.0,30,0.12,RA,,0.13,WeatherDisplay:10.37,2013-08-28 13:33:00,
2013-08-28 09:34:00,72.4,40.0,30.05,NNW,336,0.0,0.0,31,0.13,RA,,0.13,WeatherDisplay:10.37,2013-08-28 13:34:00,
2013-08-28 09:35:00,72.5,40.1,30.05,NNW,336,0.0,0.0,31,0.13,RA,,0.13,WeatherDisplay:10.37,2013-08-28 13:35:00,
2013-08-28 09:36:00,72.2,40.7,30.05,NNW,336,0.0,0.0,32,0.14,RA,,0.14,WeatherDisplay:10.37,2013-08-28 13:36:00,
2013-08-28 09:37:00,72.3,40.8,30.05,NNW,336,0.0,0.0,32,0.14,RA,,0.14,WeatherDisplay:10.37,2013-08-28 13:37:00,
2013-08-28 09:39:00,72.3,41.6,30.05,NNW,336,0.0,0.0,33,0.14,RA,,0.14,WeatherDisplay:10.37,2013-08-28 13:39:00,
2013-08-28 09:40:00,72.5,41.0,30.05,NNW,336,0.0,0.0,32,0.14,RA,,0.14,WeatherDisplay:10.37,2013-08-28 13:40:00,
2013-08-28 09:41:00,72.5,41.0,30.05,NNW,336,0.0,0.0,32,0.15,RA,,0.15,WeatherDisplay:10.37,2013-08-28 13:41:00,
2013-08-28 09:43:00,72.5,41.0,30.05,NNW,336,0.0,0.0,32,0.15,RA,,0.15,WeatherDisplay:10.37,2013-08-28 13:43:00,
2013-08-28 09:44:00,72.3,40.8,30.05,NNW,336,0.0,0.0,32,0.15,RA,,0.15,WeatherDisplay:10.37,2013-08-28 13:44:00,
2013-08-28 09:45:00,72.4,40.9,30.05,NNW,336,0.0,0.0,32,0.15,RA,,0.15,WeatherDisplay:10.37,2013-08-28 13:45:00,
2013-08-28 09:46:00,72.4,40.9,30.05,NNW,336,0.0,0.0,32,0.15,RA,,0.15,WeatherDisplay:10.37,2013-08-28 13:46:00,
2013-08-28 09:48:00,72.5,41.0,30.05,NNW,336,0.0,0.0,32,0.15,RA,,0.15,WeatherDisplay:10.37,2013-08-28 13:48:00,
2013-08-28 09:49:00,72.6,41.0,30.05,NNW,336,0.0,0.0,32,0.15,RA,,0.16,WeatherDisplay:10.37,2013-08-28 13:49:00,
2013-08-28 09:51:00,72.6,39.4,30.05,NNW,336,0.0,0.0,30,0.16,RA,,0.16,WeatherDisplay:10.37,2013-08-28 13:51:00,
2013-08-28 09:52:00,72.7,38.6,30.05,NNW,336,0.0,0.0,29,0.16,RA,,0.16,WeatherDisplay:10.37,2013-08-28 13:52:00,
2013-08-28 09:54:00,72.5,38.4,30.05,NNW,336,0.0,0.0,29,0.15,RA,,0.16,WeatherDisplay:10.37,2013-08-28 13:54:00,
2013-08-28 09:56:00,72.4,37.4,30.05,NNW,336,0.0,0.0,28,0.16,RA,,0.17,WeatherDisplay:10.37,2013-08-28 13:56:00,
2013-08-28 09:57:00,72.6,37.6,30.05,NNW,336,0.0,0.0,28,0.16,RA,,0.17,WeatherDisplay:10.37,2013-08-28 13:57:00,
2013-08-28 09:58:00,72.7,38.6,30.05,NNW,336,0.0,0.0,29,0.16,RA,,0.17,WeatherDisplay:10.37,2013-08-28 13:58:00,
2013-08-28 09:59:00,73.0,38.9,30.05,NNW,336,0.0,0.0,29,0.16,RA,,0.17,WeatherDisplay:10.37,2013-08-28 13:59:00,
2013-08-28 10:02:00,72.9,36.0,30.05,NNW,336,0.0,0.0,26,0.15,RA,,0.17,WeatherDisplay:10.37,2013-08-28 14:02:00,
2013-08-28 10:03:00,72.8,35.9,30.05,NNW,336,0.0,0.0,26,0.15,RA,,0.17,WeatherDisplay:10.37,2013-08-28 14:03:00,
2013-08-28 10:04:00,72.6,35.7,30.05,NNW,336,0.0,0.0,26,0.14,RA,,0.17,WeatherDisplay:10.37,2013-08-28 14:04:00,
2013-08-28 10:05:00,73.0,37.0,30.05,NNW,336,0.0,0.0,27,0.14,RA,,0.17,WeatherDisplay:10.37,2013-08-28 14:05:00,
2013-08-28 10:07:00,72.8,36.9,30.05,NNW,336,0.0,0.0,27,0.14,,,0.17,WeatherDisplay:10.37,2013-08-28 14:07:00,
2013-08-28 10:08:00,72.8,36.9,30.05,NNW,336,0.0,0.0,27,0.13,CLR,,0.17,WeatherDisplay:10.37,2013-08-28 14:08:00,
2013-08-28 10:09:00,73.2,37.2,30.06,NNW,336,0.0,0.0,27,0.12,CLR,,0.17,WeatherDisplay:10.37,2013-08-28 14:09:00,
2013-08-28 10:10:00,73.1,37.1,30.06,NNW,336,0.0,0.0,27,0.12,CLR,,0.17,WeatherDisplay:10.37,2013-08-28 14:10:00,
2013-08-28 10:12:00,73.1,38.0,30.06,NNW,336,0.0,0.0,28,0.11,CLR,,0.17,WeatherDisplay:10.37,2013-08-28 14:12:00,
2013-08-28 10:13:00,73.1,38.0,30.06,NNW,336,0.0,0.0,28,0.10,CLR,,0.17,WeatherDisplay:10.37,2013-08-28 14:13:00,
2013-08-28 10:14:00,73.1,38.0,30.06,NNW,336,0.0,0.0,28,0.10,CLR,,0.17,WeatherDisplay:10.37,2013-08-28 14:14:00,
2013-08-28 10:15:00,73.3,38.2,30.06,NNW,336,0.0,0.0,28,0.09,CLR,,0.17,WeatherDisplay:10.37,2013-08-28 14:15:00,
2013-08-28 10:17:00,73.4,38.3,30.06,NNW,336,0.0,0.0,28,0.08,CLR,,0.17,WeatherDisplay:10.37,2013-08-28 14:17:00,
2013-08-28 10:18:00,73.3,38.2,30.06,NNW,336,0.0,0.0,28,0.08,CLR,,0.17,WeatherDisplay:10.37,2013-08-28 14:18:00,
2013-08-28 10:19:00,73.4,38.3,30.05,NNW,336,0.0,0.0,28,0.08,CLR,,0.17,WeatherDisplay:10.37,2013-08-28 14:19:00,
2013-08-28 10:20:00,73.4,38.3,30.05,NNW,336,0.0,0.0,28,0.07,CLR,,0.17,WeatherDisplay:10.37,2013-08-28 14:20:00,
2013-08-28 10:21:00,73.6,38.5,30.06,NNW,336,0.0,0.0,28,0.06,CLR,,0.17,WeatherDisplay:10.37,2013-08-28 14:21:00,
2013-08-28 10:22:00,73.4,38.3,30.06,NNW,336,0.0,0.0,28,0.06,CLR,,0.17,WeatherDisplay:10.37,2013-08-28 14:22:00,
2013-08-28 10:24:00,73.5,39.3,30.06,NNW,336,0.0,0.0,29,0.06,CLR,,0.17,WeatherDisplay:10.37,2013-08-28 14:24:00,
2013-08-28 10:26:00,73.7,39.5,30.06,NNW,336,0.0,0.0,29,0.05,CLR,,0.17,WeatherDisplay:10.37,2013-08-28 14:26:00,
2013-08-28 10:27:00,73.5,38.4,30.06,NNW,336,0.0,0.0,28,0.05,CLR,,0.17,WeatherDisplay:10.37,2013-08-28 14:27:00,
2013-08-28 10:29:00,73.6,39.4,30.05,NNW,336,0.0,0.0,29,0.05,CLR,,0.17,WeatherDisplay:10.37,2013-08-28 14:29:00,
2013-08-28 10:30:00,73.6,39.4,30.06,NNW,336,0.0,0.0,29,0.05,CLR,,0.17,WeatherDisplay:10.37,2013-08-28 14:30:00,
2013-08-28 10:31:00,73.4,40.1,30.05,NNW,336,0.0,0.0,30,0.05,CLR,,0.17,WeatherDisplay:10.37,2013-08-28 14:31:00,
2013-08-28 10:33:00,73.3,40.8,30.05,NNW,336,0.0,0.0,31,0.05,CLR,,0.17,WeatherDisplay:10.37,2013-08-28 14:33:00,
2013-08-28 10:34:00,73.5,41.8,30.06,NNW,336,0.0,0.0,32,0.04,CLR,,0.17,WeatherDisplay:10.37,2013-08-28 14:34:00,
2013-08-28 10:35:00,73.5,42.6,30.05,NNW,336,0.0,0.0,33,0.04,CLR,,0.17,WeatherDisplay:10.37,2013-08-28 14:35:00,
2013-08-28 10:36:00,73.5,42.6,30.06,NNW,336,0.0,0.0,33,0.03,CLR,,0.17,WeatherDisplay:10.37,2013-08-28 14:36:00,
2013-08-28 10:38:00,73.4,42.5,30.06,NNW,336,0.0,0.0,33,0.03,CLR,,0.17,WeatherDisplay:10.37,2013-08-28 14:38:00,
2013-08-28 10:39:00,73.5,42.6,30.06,NNW,336,0.0,0.0,33,0.03,CLR,,0.17,WeatherDisplay:10.37,2013-08-28 14:39:00,
2013-08-28 10:40:00,73.7,42.8,30.06,NNW,336,0.0,0.0,33,0.03,CLR,,0.17,WeatherDisplay:10.37,2013-08-28 14:40:00,
2013-08-28 10:41:00,73.6,41.9,30.05,NNW,336,0.0,0.0,32,0.02,CLR,,0.17,WeatherDisplay:10.37,2013-08-28 14:41:00,
2013-08-28 10:43:00,73.6,41.1,30.05,NNW,336,0.0,0.0,31,0.02,CLR,,0.17,WeatherDisplay:10.37,2013-08-28 14:43:00,
2013-08-28 10:44:00,73.6,41.1,30.05,NNW,336,0.0,0.0,31,0.02,CLR,,0.17,WeatherDisplay:10.37,2013-08-28 14:44:00,
2013-08-28 10:45:00,73.8,40.4,30.05,NNW,336,0.0,0.0,30,0.02,CLR,,0.17,WeatherDisplay:10.37,2013-08-28 14:45:00,
2013-08-28 10:47:00,73.8,40.4,30.05,NNW,336,0.0,0.0,30,0.02,CLR,,0.17,WeatherDisplay:10.37,2013-08-28 14:47:00,
2013-08-28 10:48:00,73.9,40.5,30.05,NNW,336,0.0,0.0,30,0.02,CLR,,0.17,WeatherDisplay:10.37,2013-08-28 14:48:00,
2013-08-28 10:49:00,73.9,40.5,30.05,NNW,336,0.0,0.0,30,0.02,CLR,,0.17,WeatherDisplay:10.37,2013-08-28 14:49:00,
2013-08-28 10:50:00,74.1,40.7,30.05,NNW,336,0.0,0.0,30,0.01,CLR,,0.17,WeatherDisplay:10.37,2013-08-28 14:50:00,
2013-08-28 10:52:00,74.1,40.7,30.05,NNW,336,0.0,0.0,30,0.01,CLR,,0.17,WeatherDisplay:10.37,2013-08-28 14:52:00,
2013-08-28 10:53:00,74.1,40.7,30.04,NNW,336,0.0,0.0,30,0.01,CLR,,0.17,WeatherDisplay:10.37,2013-08-28 14:53:00,
2013-08-28 10:54:00,74.1,40.7,30.04,NNW,336,0.0,0.0,30,0.01,CLR,,0.17,WeatherDisplay:10.37,2013-08-28 14:54:00,
2013-08-28 10:55:00,73.9,40.5,30.04,NNW,336,0.0,0.0,30,0.01,CLR,,0.17,WeatherDisplay:10.37,2013-08-28 14:55:00,
2013-08-28 10:58:00,74.1,40.7,30.05,NNW,336,0.0,0.0,30,0.00,CLR,,0.17,WeatherDisplay:10.37,2013-08-28 14:58:00,
2013-08-28 11:00:00,74.2,39.9,30.04,NNW,336,0.0,0.0,29,0.00,CLR,,0.17,WeatherDisplay:10.37,2013-08-28 15:00:00,
2013-08-28 11:01:00,74.2,39.9,30.04,NNW,336,0.0,0.0,29,0.00,CLR,,0.17,WeatherDisplay:10.37,2013-08-28 15:01:00,
2013-08-28 11:03:00,74.1,38.0,30.04,NNW,336,0.0,0.0,27,0.00,CLR,,0.17,WeatherDisplay:10.37,2013-08-28 15:03:00,
2013-08-28 11:04:00,74.2,38.1,30.04,NNW,336,0.0,0.0,27,0.00,CLR,,0.17,WeatherDisplay:10.37,2013-08-28 15:04:00,
2013-08-28 11:05:00,74.1,38.9,30.04,NNW,336,0.0,0.0,28,0.00,CLR,,0.17,WeatherDisplay:10.37,2013-08-28 15:05:00,
2013-08-28 11:06:00,74.2,39.0,30.04,NNW,336,0.0,0.0,28,0.00,CLR,,0.17,WeatherDisplay:10.37,2013-08-28 15:06:00,
2013-08-28 11:08:00,74.1,39.8,30.04,NNW,336,0.0,0.0,29,0.00,CLR,,0.17,WeatherDisplay:10.37,2013-08-28 15:08:00,
2013-08-28 11:09:00,74.2,40.8,30.04,NNW,336,0.0,0.0,30,0.00,CLR,,0.17,WeatherDisplay:10.37,2013-08-28 15:09:00,
2013-08-28 11:10:00,74.1,39.8,30.04,NNW,336,0.0,0.0,29,0.00,CLR,,0.17,WeatherDisplay:10.37,2013-08-28 15:10:00,
2013-08-28 11:11:00,74.1,38.9,30.04,NNW,336,0.0,0.0,28,0.00,CLR,,0.17,WeatherDisplay:10.37,2013-08-28 15:11:00,
2013-08-28 11:12:00,74.1,39.8,30.04,NNW,336,0.0,0.0,29,0.00,CLR,,0.17,WeatherDisplay:10.37,2013-08-28 15:12:00,
2013-08-28 11:13:00,74.2,39.0,30.04,NNW,336,0.0,0.0,28,0.00,CLR,,0.17,WeatherDisplay:10.37,2013-08-28 15:13:00,
2013-08-28 11:15:00,74.1,38.9,30.04,NNW,336,0.0,0.0,28,0.00,CLR,,0.17,WeatherDisplay:10.37,2013-08-28 15:15:00,
2013-08-28 11:16:00,74.1,38.0,30.04,NNW,336,0.0,0.0,27,0.00,CLR,,0.17,WeatherDisplay:10.37,2013-08-28 15:16:00,
2013-08-28 11:17:00,74.2,38.1,30.04,NNW,336,0.0,0.0,27,0.00,CLR,,0.17,WeatherDisplay:10.37,2013-08-28 15:17:00,
2013-08-28 11:18:00,74.1,38.0,30.04,NNW,336,0.0,0.0,27,0.00,CLR,,0.17,WeatherDisplay:10.37,2013-08-28 15:18:00,
2013-08-28 11:20:00,74.1,38.0,30.04,NNW,336,0.0,0.0,27,0.00,CLR,,0.17,WeatherDisplay:10.37,2013-08-28 15:20:00,
2013-08-28 11:21:00,74.2,37.1,30.04,NNW,336,0.0,0.0,26,0.00,CLR,,0.17,WeatherDisplay:10.37,2013-08-28 15:21:00,
2013-08-28 11:22:00,74.1,37.0,30.04,NNW,336,0.0,0.0,26,0.00,CLR,,0.17,WeatherDisplay:10.37,2013-08-28 15:22:00,
2013-08-28 11:23:00,74.1,37.0,30.04,NNW,336,0.0,0.0,26,0.00,CLR,,0.17,WeatherDisplay:10.37,2013-08-28 15:23:00,
2013-08-28 11:24:00,74.2,36.1,30.04,NNW,336,0.0,0.0,25,0.00,CLR,,0.17,WeatherDisplay:10.37,2013-08-28 15:24:00,
2013-08-28 11:25:00,74.2,36.1,30.04,NNW,336,0.0,0.0,25,0.00,CLR,,0.17,WeatherDisplay:10.37,2013-08-28 15:25:00,
2013-08-28 11:26:00,74.1,36.0,30.04,NNW,336,0.0,0.0,25,0.00,CLR,,0.17,WeatherDisplay:10.37,2013-08-28 15:26:00,
2013-08-28 11:27:00,74.1,36.0,30.04,NNW,336,0.0,0.0,25,0.00,CLR,,0.17,WeatherDisplay:10.37,2013-08-28 15:27:00,
2013-08-28 11:28:00,74.2,37.1,30.04,NNW,336,0.0,0.0,26,0.00,CLR,,0.17,WeatherDisplay:10.37,2013-08-28 15:28:00,
2013-08-28 11:29:00,74.2,37.1,30.04,NNW,336,0.0,0.0,26,0.00,CLR,,0.17,WeatherDisplay:10.37,2013-08-28 15:29:00,
2013-08-28 11:31:00,74.1,36.0,30.04,NNW,336,0.0,0.0,25,0.00,CLR,,0.17,WeatherDisplay:10.37,2013-08-28 15:31:00,
2013-08-28 11:32:00,74.2,37.1,30.04,NNW,336,0.0,0.0,26,0.00,CLR,,0.17,WeatherDisplay:10.37,2013-08-28 15:32:00,
2013-08-28 11:33:00,74.2,37.1,30.04,NNW,336,0.0,0.0,26,0.00,CLR,,0.17,WeatherDisplay:10.37,2013-08-28 15:33:00,
2013-08-28 11:36:00,74.1,38.0,30.04,NNW,336,0.0,0.0,27,0.00,CLR,,0.17,WeatherDisplay:10.37,2013-08-28 15:36:00,
2013-08-28 11:37:00,74.1,38.9,30.04,NNW,336,0.0,0.0,28,0.00,CLR,,0.17,WeatherDisplay:10.37,2013-08-28 15:37:00,
2013-08-28 11:38:00,74.1,39.8,30.04,NNW,336,0.0,0.0,29,0.00,CLR,,0.17,WeatherDisplay:10.37,2013-08-28 15:38:00,
2013-08-28 11:40:00,74.1,38.9,30.04,NNW,336,0.0,0.0,28,0.00,CLR,,0.17,WeatherDisplay:10.37,2013-08-28 15:40:00,
2013-08-28 11:42:00,74.1,38.9,30.04,NNW,336,0.0,0.0,28,0.00,CLR,,0.17,WeatherDisplay:10.37,2013-08-28 15:42:00,
2013-08-28 11:43:00,74.1,38.9,30.04,NNW,336,0.0,0.0,28,0.00,CLR,,0.17,WeatherDisplay:10.37,2013-08-28 15:43:00,
2013-08-28 11:45:00,74.1,39.8,30.04,NNW,336,0.0,0.0,29,0.00,CLR,,0.17,WeatherDisplay:10.37,2013-08-28 15:45:00,
2013-08-28 11:47:00,74.1,39.8,30.04,NNW,336,0.0,0.0,29,0.00,CLR,,0.17,WeatherDisplay:10.37,2013-08-28 15:47:00,
2013-08-28 11:48:00,74.1,39.8,30.04,NNW,336,0.0,0.0,29,0.00,CLR,,0.17,WeatherDisplay:10.37,2013-08-28 15:48:00,
2013-08-28 11:49:00,74.1,38.9,30.03,NNW,336,0.0,0.0,28,0.00,CLR,,0.17,WeatherDisplay:10.37,2013-08-28 15:49:00,
2013-08-28 11:51:00,74.1,38.9,30.03,NNW,336,0.0,0.0,28,0.00,CLR,,0.17,WeatherDisplay:10.37,2013-08-28 15:51:00,
2013-08-28 11:53:00,74.2,38.1,30.03,NNW,336,0.0,0.0,27,0.00,CLR,,0.17,WeatherDisplay:10.37,2013-08-28 15:53:00,
2013-08-28 11:54:00,74.2,38.1,30.03,NNW,336,0.0,0.0,27,0.00,CLR,,0.17,WeatherDisplay:10.37,2013-08-28 15:54:00,
2013-08-28 11:56:00,74.1,37.0,30.03,NNW,336,0.0,0.0,26,0.00,CLR,,0.17,WeatherDisplay:10.37,2013-08-28 15:56:00,
2013-08-28 11:58:00,74.1,35.0,30.03,NNW,336,0.0,0.0,24,0.00,CLR,,0.17,WeatherDisplay:10.37,2013-08-28 15:58:00,
2013-08-28 11:59:00,74.1,35.0,30.03,NNW,336,0.0,0.0,24,0.00,CLR,,0.17,WeatherDisplay:10.37,2013-08-28 15:59:00,
2013-08-28 12:01:00,74.1,33.9,30.03,NNW,336,0.0,0.0,23,0.00,CLR,,0.17,WeatherDisplay:10.37,2013-08-28 16:01:00,
2013-08-28 12:04:00,74.2,34.0,30.03,NNW,336,0.0,0.0,23,0.00,CLR,,0.17,WeatherDisplay:10.37,2013-08-28 16:04:00,
2013-08-28 12:05:00,74.1,33.9,30.03,NNW,336,0.0,0.0,23,0.00,CLR,,0.17,WeatherDisplay:10.37,2013-08-28 16:05:00,
2013-08-28 12:06:00,74.2,34.0,30.03,NNW,336,0.0,0.0,23,0.00,CLR,,0.17,WeatherDisplay:10.37,2013-08-28 16:06:00,
2013-08-28 12:09:00,74.2,34.0,30.03,NNW,336,0.0,0.0,23,0.00,CLR,,0.17,WeatherDisplay:10.37,2013-08-28 16:09:00,
2013-08-28 12:10:00,74.2,34.0,30.03,NNW,336,0.0,0.0,23,0.00,CLR,,0.17,WeatherDisplay:10.37,2013-08-28 16:10:00,
2013-08-28 12:12:00,74.2,34.0,30.03,NNW,336,0.0,0.0,23,0.00,CLR,,0.17,WeatherDisplay:10.37,2013-08-28 16:12:00,
2013-08-28 12:14:00,74.2,34.0,30.03,NNW,336,0.0,0.0,23,0.00,CLR,,0.17,WeatherDisplay:10.37,2013-08-28 16:14:00,
2013-08-28 12:15:00,74.2,35.1,30.03,NNW,336,0.0,0.0,24,0.00,CLR,,0.17,WeatherDisplay:10.37,2013-08-28 16:15:00,
2013-08-28 12:16:00,74.2,35.1,30.03,NNW,336,0.0,0.0,24,0.00,CLR,,0.17,WeatherDisplay:10.37,2013-08-28 16:16:00,
2013-08-28 12:17:00,74.2,35.1,30.03,NNW,336,0.0,0.0,24,0.00,CLR,,0.17,WeatherDisplay:10.37,2013-08-28 16:17:00,
2013-08-28 12:19:00,74.2,35.1,30.03,NNW,336,0.0,0.0,24,0.00,CLR,,0.17,WeatherDisplay:10.37,2013-08-28 16:19:00,
2013-08-28 12:20:00,74.3,35.2,30.03,NNW,336,0.0,0.0,24,0.00,CLR,,0.17,WeatherDisplay:10.37,2013-08-28 16:20:00,
2013-08-28 12:21:00,74.4,35.2,30.03,NNW,336,0.0,0.0,24,0.00,CLR,,0.17,WeatherDisplay:10.37,2013-08-28 16:21:00,
2013-08-28 12:22:00,74.2,35.1,30.02,NNW,336,0.0,0.0,24,0.00,CLR,,0.17,WeatherDisplay:10.37,2013-08-28 16:22:00,
2013-08-28 12:24:00,74.6,35.4,30.02,NNW,336,0.0,0.0,24,0.00,CLR,,0.17,WeatherDisplay:10.37,2013-08-28 16:24:00,
2013-08-28 12:25:00,75.0,33.6,30.02,NNW,336,0.0,0.0,22,0.00,CLR,,0.17,WeatherDisplay:10.37,2013-08-28 16:25:00,
2013-08-28 12:26:00,74.9,32.3,30.02,NNW,336,0.0,0.0,21,0.00,CLR,,0.17,WeatherDisplay:10.37,2013-08-28 16:26:00,
2013-08-28 12:27:00,74.7,30.9,30.02,NNW,336,0.0,0.0,20,0.00,CLR,,0.17,WeatherDisplay:10.37,2013-08-28 16:27:00,
2013-08-28 12:29:00,74.7,30.9,30.03,NNW,336,0.0,0.0,20,0.00,CLR,,0.17,WeatherDisplay:10.37,2013-08-28 16:29:00,
2013-08-28 12:30:00,74.8,29.8,30.03,NNW,336,0.0,0.0,19,0.00,CLR,,0.17,WeatherDisplay:10.37,2013-08-28 16:30:00,
2013-08-28 12:31:00,74.5,29.5,30.03,NNW,336,0.0,0.0,19,0.00,CLR,,0.17,WeatherDisplay:10.37,2013-08-28 16:31:00,
2013-08-28 12:32:00,74.9,29.8,30.03,NNW,336,0.0,0.0,19,0.00,CLR,,0.17,WeatherDisplay:10.37,2013-08-28 16:32:00,
2013-08-28 12:34:00,74.8,28.4,30.02,NNW,336,0.0,0.0,18,0.00,CLR,,0.17,WeatherDisplay:10.37,2013-08-28 16:34:00,
2013-08-28 12:35:00,74.6,28.3,30.02,NNW,336,0.0,0.0,18,0.00,CLR,,0.17,WeatherDisplay:10.37,2013-08-28 16:35:00,
2013-08-28 12:37:00,75.1,30.0,30.02,NNW,336,0.0,0.0,19,0.00,CLR,,0.17,WeatherDisplay:10.37,2013-08-28 16:37:00,
2013-08-28 12:38:00,75.3,30.2,30.03,NNW,336,0.0,0.0,19,0.00,CLR,,0.17,WeatherDisplay:10.37,2013-08-28 16:38:00,
2013-08-28 12:39:00,75.2,30.1,30.03,NNW,336,0.0,0.0,19,0.00,CLR,,0.17,WeatherDisplay:10.37,2013-08-28 16:39:00,
2013-08-28 12:40:00,75.3,28.8,30.02,NNW,336,0.0,0.0,18,0.00,CLR,,0.17,WeatherDisplay:10.37,2013-08-28 16:40:00,
2013-08-28 12:41:00,75.4,28.9,30.03,NNW,336,0.0,0.0,18,0.00,CLR,,0.17,WeatherDisplay:10.37,2013-08-28 16:41:00,
2013-08-28 12:42:00,75.0,27.2,30.03,NNW,336,0.0,0.0,17,0.00,CLR,,0.17,WeatherDisplay:10.37,2013-08-28 16:42:00,
2013-08-28 12:43:00,75.1,25.8,30.03,NNW,336,0.0,0.0,16,0.00,CLR,,0.17,WeatherDisplay:10.37,2013-08-28 16:43:00,
2013-08-28 12:44:00,75.2,25.9,30.03,NNW,336,0.0,0.0,16,0.00,CLR,,0.17,WeatherDisplay:10.37,2013-08-28 16:44:00,
2013-08-28 12:45:00,75.4,26.1,30.03,NNW,336,0.0,0.0,16,0.00,CLR,,0.17,WeatherDisplay:10.37,2013-08-28 16:45:00,
2013-08-28 12:46:00,75.3,26.0,30.03,NNW,336,0.0,0.0,16,0.00,CLR,,0.17,WeatherDisplay:10.37,2013-08-28 16:46:00,
2013-08-28 12:47:00,75.0,25.7,30.03,NNW,336,0.0,0.0,16,0.00,CLR,,0.17,WeatherDisplay:10.37,2013-08-28 16:47:00,
2013-08-28 12:49:00,75.3,26.0,30.02,NNW,336,0.0,0.0,16,0.00,CLR,,0.17,WeatherDisplay:10.37,2013-08-28 16:49:00,
2013-08-28 12:51:00,75.3,24.4,30.02,NNW,336,0.0,0.0,15,0.00,CLR,,0.17,WeatherDisplay:10.37,2013-08-28 16:51:00,
2013-08-28 12:52:00,75.1,24.3,30.03,NNW,336,0.0,0.0,15,0.00,CLR,,0.17,WeatherDisplay:10.37,2013-08-28 16:52:00,
2013-08-28 12:53:00,75.1,25.8,30.02,NNW,336,0.0,0.0,16,0.00,CLR,,0.17,WeatherDisplay:10.37,2013-08-28 16:53:00,
2013-08-28 12:54:00,75.6,26.2,30.02,NNW,336,0.0,0.0,16,0.00,CLR,,0.17,WeatherDisplay:10.37,2013-08-28 16:54:00,
2013-08-28 12:55:00,75.2,25.9,30.02,NNW,336,0.0,0.0,16,0.00,CLR,,0.17,WeatherDisplay:10.37,2013-08-28 16:55:00,
2013-08-28 12:56:00,74.9,27.1,30.02,NNW,336,0.0,0.0,17,0.00,CLR,,0.17,WeatherDisplay:10.37,2013-08-28 16:56:00,
2013-08-28 12:58:00,75.4,26.1,30.02,NNW,336,0.0,0.0,16,0.00,CLR,,0.17,WeatherDisplay:10.37,2013-08-28 16:58:00,
2013-08-28 12:59:00,75.2,28.8,30.02,NNW,336,0.0,0.0,18,0.00,CLR,,0.17,WeatherDisplay:10.37,2013-08-28 16:59:00,
2013-08-28 13:00:00,75.4,28.9,30.02,NNW,336,0.0,0.0,18,0.00,CLR,,0.17,WeatherDisplay:10.37,2013-08-28 17:00:00,
2013-08-28 13:01:00,75.4,28.9,30.02,NNW,336,0.0,0.0,18,0.00,CLR,,0.17,WeatherDisplay:10.37,2013-08-28 17:01:00,
2013-08-28 13:03:00,75.3,28.8,30.02,NNW,336,0.0,0.0,18,0.00,CLR,,0.17,WeatherDisplay:10.37,2013-08-28 17:03:00,
2013-08-28 13:04:00,75.3,28.8,30.02,NNW,336,0.0,0.0,18,0.00,CLR,,0.17,WeatherDisplay:10.37,2013-08-28 17:04:00,
2013-08-28 13:06:00,75.3,28.8,30.02,NNW,336,0.0,0.0,18,0.00,CLR,,0.17,WeatherDisplay:10.37,2013-08-28 17:06:00,
2013-08-28 13:08:00,75.1,28.7,30.02,NNW,336,0.0,0.0,18,0.00,CLR,,0.17,WeatherDisplay:10.37,2013-08-28 17:08:00,
2013-08-28 13:09:00,75.1,30.0,30.02,NNW,336,0.0,0.0,19,0.00,CLR,,0.17,WeatherDisplay:10.37,2013-08-28 17:09:00,
2013-08-28 13:10:00,75.0,29.9,30.01,NNW,336,0.0,0.0,19,0.00,CLR,,0.17,WeatherDisplay:10.37,2013-08-28 17:10:00,
2013-08-28 13:11:00,75.2,31.3,30.02,NNW,336,0.0,0.0,20,0.00,CLR,,0.17,WeatherDisplay:10.37,2013-08-28 17:11:00,
2013-08-28 13:12:00,75.2,31.3,30.01,NNW,336,0.0,0.0,20,0.00,CLR,,0.17,WeatherDisplay:10.37,2013-08-28 17:12:00,
2013-08-28 13:13:00,75.1,31.3,30.01,NNW,336,0.0,0.0,20,0.00,CLR,,0.17,WeatherDisplay:10.37,2013-08-28 17:13:00,
2013-08-28 13:15:00,75.3,31.4,30.01,NNW,336,0.0,0.0,20,0.00,CLR,,0.17,WeatherDisplay:10.37,2013-08-28 17:15:00,
2013-08-28 13:16:00,75.1,30.0,30.01,NNW,336,0.0,0.0,19,0.00,CLR,,0.17,WeatherDisplay:10.37,2013-08-28 17:16:00,
2013-08-28 13:18:00,74.9,29.8,30.01,NNW,336,0.0,0.0,19,0.00,CLR,,0.17,WeatherDisplay:10.37,2013-08-28 17:18:00,
2013-08-28 13:19:00,75.1,31.3,30.01,NNW,336,0.0,0.0,20,0.00,CLR,,0.17,WeatherDisplay:10.37,2013-08-28 17:19:00,
2013-08-28 13:20:00,75.1,31.3,30.01,NNW,336,0.0,0.0,20,0.00,CLR,,0.17,WeatherDisplay:10.37,2013-08-28 17:20:00,
2013-08-28 13:21:00,74.6,30.9,30.01,NNW,336,0.0,0.0,20,0.00,CLR,,0.17,WeatherDisplay:10.37,2013-08-28 17:21:00,
2013-08-28 13:22:00,74.5,30.8,30.01,NNW,336,0.0,0.0,20,0.00,CLR,,0.17,WeatherDisplay:10.37,2013-08-28 17:22:00,
2013-08-28 13:23:00,74.8,32.2,30.01,NNW,336,0.0,0.0,21,0.00,CLR,,0.17,WeatherDisplay:10.37,2013-08-28 17:23:00,
2013-08-28 13:24:00,74.5,33.1,30.01,NNW,336,0.0,0.0,22,0.00,CLR,,0.17,WeatherDisplay:10.37,2013-08-28 17:24:00,
2013-08-28 13:25:00,74.7,33.3,30.01,NNW,336,0.0,0.0,22,0.00,CLR,,0.17,WeatherDisplay:10.37,2013-08-28 17:25:00,
2013-08-28 13:26:00,74.7,33.3,30.01,NNW,336,0.0,0.0,22,0.00,CLR,,0.17,WeatherDisplay:10.37,2013-08-28 17:26:00,
2013-08-28 13:27:00,74.5,34.2,30.01,NNW,336,0.0,0.0,23,0.00,CLR,,0.17,WeatherDisplay:10.37,2013-08-28 17:27:00,
2013-08-28 13:28:00,74.6,34.3,30.00,NNW,336,0.0,0.0,23,0.00,CLR,,0.17,WeatherDisplay:10.37,2013-08-28 17:28:00,
2013-08-28 13:29:00,74.3,35.2,30.01,NNW,336,0.0,0.0,24,0.00,CLR,,0.17,WeatherDisplay:10.37,2013-08-28 17:29:00,
2013-08-28 13:30:00,74.4,35.2,30.01,NNW,336,0.0,0.0,24,0.00,CLR,,0.17,WeatherDisplay:10.37,2013-08-28 17:30:00,
2013-08-28 13:32:00,74.7,36.5,30.00,NNW,336,0.0,0.0,25,0.00,CLR,,0.17,WeatherDisplay:10.37,2013-08-28 17:32:00,
2013-08-28 13:34:00,74.4,36.3,30.00,NNW,336,0.0,0.0,25,0.00,CLR,,0.17,WeatherDisplay:10.37,2013-08-28 17:34:00,
2013-08-28 13:35:00,74.7,36.5,30.01,NNW,336,0.0,0.0,25,0.00,CLR,,0.17,WeatherDisplay:10.37,2013-08-28 17:35:00,
2013-08-28 13:37:00,74.7,36.5,30.01,NNW,336,0.0,0.0,25,0.00,CLR,,0.17,WeatherDisplay:10.37,2013-08-28 17:37:00,
2013-08-28 13:38:00,74.9,37.7,30.01,NNW,336,0.0,0.0,26,0.00,CLR,,0.17,WeatherDisplay:10.37,2013-08-28 17:38:00,
2013-08-28 13:39:00,75.0,37.8,30.01,NNW,336,0.0,0.0,26,0.00,CLR,,0.17,WeatherDisplay:10.37,2013-08-28 17:39:00,
2013-08-28 13:40:00,74.8,37.6,30.00,NNW,336,0.0,0.0,26,0.00,CLR,,0.17,WeatherDisplay:10.37,2013-08-28 17:40:00,
2013-08-28 13:42:00,75.1,37.9,30.00,NNW,336,0.0,0.0,26,0.00,CLR,,0.17,WeatherDisplay:10.37,2013-08-28 17:42:00,
2013-08-28 13:43:00,75.5,38.2,30.00,NNW,336,0.0,0.0,26,0.00,CLR,,0.17,WeatherDisplay:10.37,2013-08-28 17:43:00,
2013-08-28 13:45:00,75.6,36.2,30.01,NNW,336,0.0,0.0,24,0.00,CLR,,0.17,WeatherDisplay:10.37,2013-08-28 17:45:00,
2013-08-28 13:47:00,75.2,33.7,30.01,NNW,336,0.0,0.0,22,0.00,CLR,,0.17,WeatherDisplay:10.37,2013-08-28 17:47:00,
2013-08-28 13:49:00,75.8,30.6,30.00,NNW,336,0.0,0.0,19,0.00,CLR,,0.17,WeatherDisplay:10.37,2013-08-28 17:49:00,
2013-08-28 13:50:00,75.4,28.9,30.00,NNW,336,0.0,0.0,18,0.00,CLR,,0.17,WeatherDisplay:10.37,2013-08-28 17:50:00,
2013-08-28 13:52:00,75.7,26.3,30.00,NNW,336,0.0,0.0,16,0.00,CLR,,0.17,WeatherDisplay:10.37,2013-08-28 17:52:00,
2013-08-28 13:54:00,75.4,26.1,30.00,NNW,336,0.0,0.0,16,0.00,CLR,,0.17,WeatherDisplay:10.37,2013-08-28 17:54:00,
2013-08-28 13:55:00,75.4,26.1,30.00,NNW,336,0.0,0.0,16,0.00,CLR,,0.17,WeatherDisplay:10.37,2013-08-28 17:55:00,
2013-08-28 13:56:00,75.4,27.5,30.00,NNW,336,0.0,0.0,17,0.00,CLR,,0.17,WeatherDisplay:10.37,2013-08-28 17:56:00,
2013-08-28 13:57:00,75.2,28.8,30.00,NNW,336,0.0,0.0,18,0.00,CLR,,0.17,WeatherDisplay:10.37,2013-08-28 17:57:00,
2013-08-28 13:59:00,74.9,31.1,30.00,NNW,336,0.0,0.0,20,0.00,CLR,,0.17,WeatherDisplay:10.37,2013-08-28 17:59:00,
2013-08-28 14:00:00,75.0,32.4,30.00,NNW,336,0.0,0.0,21,0.00,CLR,,0.17,WeatherDisplay:10.37,2013-08-28 18:00:00,
2013-08-28 14:02:00,75.0,32.4,30.00,NNW,336,0.0,0.0,21,0.00,CLR,,0.17,WeatherDisplay:10.37,2013-08-28 18:02:00,
2013-08-28 14:03:00,74.9,33.5,30.00,NNW,336,0.0,0.0,22,0.00,CLR,,0.17,WeatherDisplay:10.37,2013-08-28 18:03:00,
2013-08-28 14:05:00,75.0,35.7,30.00,NNW,336,0.0,0.0,24,0.00,CLR,,0.17,WeatherDisplay:10.37,2013-08-28 18:05:00,
2013-08-28 14:08:00,74.8,36.6,30.00,NNW,336,0.0,0.0,25,0.00,CLR,,0.17,WeatherDisplay:10.37,2013-08-28 18:08:00,
2013-08-28 14:09:00,74.8,37.6,30.00,NNW,336,0.0,0.0,26,0.00,CLR,,0.17,WeatherDisplay:10.37,2013-08-28 18:09:00,
2013-08-28 14:10:00,74.7,37.5,30.00,NNW,336,0.0,0.0,26,0.00,CLR,,0.17,WeatherDisplay:10.37,2013-08-28 18:10:00,
2013-08-28 14:11:00,74.6,37.4,30.00,NNW,336,0.0,0.0,26,0.00,CLR,,0.17,WeatherDisplay:10.37,2013-08-28 18:11:00,
2013-08-28 14:13:00,74.9,37.7,30.00,NNW,336,0.0,0.0,26,0.00,CLR,,0.17,WeatherDisplay:10.37,2013-08-28 18:13:00,
2013-08-28 14:15:00,74.8,36.6,30.00,NNW,336,0.0,0.0,25,0.00,CLR,,0.17,WeatherDisplay:10.37,2013-08-28 18:15:00,
2013-08-28 14:16:00,74.6,36.4,30.00,NNW,336,0.0,0.0,25,0.00,CLR,,0.17,WeatherDisplay:10.37,2013-08-28 18:16:00,
2013-08-28 14:17:00,75.0,36.8,30.00,NNW,336,0.0,0.0,25,0.00,CLR,,0.17,WeatherDisplay:10.37,2013-08-28 18:17:00,
2013-08-28 14:18:00,75.2,36.9,30.00,NNW,336,0.0,0.0,25,0.00,CLR,,0.17,WeatherDisplay:10.37,2013-08-28 18:18:00,
2013-08-28 14:20:00,75.1,35.8,30.00,NNW,336,0.0,0.0,24,0.00,CLR,,0.17,WeatherDisplay:10.37,2013-08-28 18:20:00,
2013-08-28 14:21:00,75.2,35.9,30.00,NNW,336,0.0,0.0,24,0.00,CLR,,0.17,WeatherDisplay:10.37,2013-08-28 18:21:00,
2013-08-28 14:22:00,75.6,36.2,30.00,NNW,336,0.0,0.0,24,0.00,CLR,,0.17,WeatherDisplay:10.37,2013-08-28 18:22:00,
2013-08-28 14:23:00,75.5,36.2,30.00,NNW,336,0.0,0.0,24,0.00,CLR,,0.17,WeatherDisplay:10.37,2013-08-28 18:23:00,
2013-08-28 14:26:00,75.4,36.1,30.00,NNW,336,0.0,0.0,24,0.00,CLR,,0.17,WeatherDisplay:10.37,2013-08-28 18:26:00,
2013-08-28 14:27:00,75.4,33.9,29.99,NNW,336,0.0,0.0,22,0.00,CLR,,0.17,WeatherDisplay:10.37,2013-08-28 18:27:00,
2013-08-28 14:28:00,75.4,33.9,29.99,NNW,336,0.0,0.0,22,0.00,CLR,,0.17,WeatherDisplay:10.37,2013-08-28 18:28:00,
2013-08-28 14:31:00,75.9,29.3,29.99,NNW,336,0.0,0.0,18,0.00,CLR,,0.17,WeatherDisplay:10.37,2013-08-28 18:31:00,
2013-08-28 14:32:00,75.8,29.2,29.99,NNW,336,0.0,0.0,18,0.00,CLR,,0.17,WeatherDisplay:10.37,2013-08-28 18:32:00,
2013-08-28 14:33:00,75.9,29.3,29.99,NNW,336,0.0,0.0,18,0.00,CLR,,0.17,WeatherDisplay:10.37,2013-08-28 18:33:00,
2013-08-28 14:35:00,75.9,26.5,29.99,NNW,336,0.0,0.0,16,0.00,CLR,,0.17,WeatherDisplay:10.37,2013-08-28 18:35:00,
2013-08-28 14:36:00,76.0,26.5,29.99,NNW,336,0.0,0.0,16,0.00,CLR,,0.17,WeatherDisplay:10.37,2013-08-28 18:36:00,
2013-08-28 14:37:00,75.9,26.5,29.99,NNW,336,0.0,0.0,16,0.00,CLR,,0.17,WeatherDisplay:10.37,2013-08-28 18:37:00,
2013-08-28 14:38:00,76.2,28.2,29.99,NNW,336,0.0,0.0,17,0.00,CLR,,0.17,WeatherDisplay:10.37,2013-08-28 18:38:00,
2013-08-28 14:40:00,75.9,29.3,29.99,NNW,336,0.0,0.0,18,0.00,CLR,,0.17,WeatherDisplay:10.37,2013-08-28 18:40:00,
2013-08-28 14:41:00,75.9,26.5,29.99,NNW,336,0.0,0.0,16,0.00,CLR,,0.17,WeatherDisplay:10.37,2013-08-28 18:41:00,
2013-08-28 14:42:00,76.0,25.0,29.99,NNW,336,0.0,0.0,15,0.00,CLR,,0.17,WeatherDisplay:10.37,2013-08-28 18:42:00,
2013-08-28 14:43:00,76.2,21.7,29.99,NNW,336,0.0,0.0,13,0.00,CLR,,0.17,WeatherDisplay:10.37,2013-08-28 18:43:00,
2013-08-28 14:45:00,76.0,21.6,29.99,NNW,336,0.0,0.0,13,0.00,CLR,,0.17,WeatherDisplay:10.37,2013-08-28 18:45:00,
2013-08-28 14:46:00,75.9,21.5,29.99,NNW,336,0.0,0.0,13,0.00,CLR,,0.17,WeatherDisplay:10.37,2013-08-28 18:46:00,
2013-08-28 14:47:00,76.2,23.5,29.99,NNW,336,0.0,0.0,14,0.00,CLR,,0.17,WeatherDisplay:10.37,2013-08-28 18:47:00,
2013-08-28 14:48:00,76.2,23.5,29.99,NNW,336,0.0,0.0,14,0.00,CLR,,0.17,WeatherDisplay:10.37,2013-08-28 18:48:00,
2013-08-28 14:49:00,76.1,23.4,29.99,NNW,336,0.0,0.0,14,0.00,CLR,,0.17,WeatherDisplay:10.37,2013-08-28 18:49:00,
2013-08-28 14:50:00,76.1,21.6,29.99,NNW,336,0.0,0.0,13,0.00,CLR,,0.17,WeatherDisplay:10.37,2013-08-28 18:50:00,
2013-08-28 14:51:00,76.2,21.7,29.99,NNW,336,0.0,0.0,13,0.00,CLR,,0.17,WeatherDisplay:10.37,2013-08-28 18:51:00,
2013-08-28 14:52:00,76.3,21.8,29.99,NNW,336,0.0,0.0,13,0.00,CLR,,0.17,WeatherDisplay:10.37,2013-08-28 18:52:00,
2013-08-28 14:53:00,75.9,21.5,29.99,NNW,336,0.0,0.0,13,0.00,CLR,,0.17,WeatherDisplay:10.37,2013-08-28 18:53:00,
2013-08-28 14:54:00,75.9,23.2,29.99,NNW,336,0.0,0.0,14,0.00,CLR,,0.17,WeatherDisplay:10.37,2013-08-28 18:54:00,
2013-08-28 14:56:00,76.0,23.3,29.99,NNW,336,0.0,0.0,14,0.00,CLR,,0.17,WeatherDisplay:10.37,2013-08-28 18:56:00,
2013-08-28 14:57:00,76.2,23.5,29.99,NNW,336,0.0,0.0,14,0.00,CLR,,0.17,WeatherDisplay:10.37,2013-08-28 18:57:00,
2013-08-28 14:59:00,76.1,25.1,29.98,NNW,336,0.0,0.0,15,0.00,CLR,,0.17,WeatherDisplay:10.37,2013-08-28 18:59:00,
2013-08-28 15:01:00,76.1,25.1,29.98,NNW,336,0.0,0.0,15,0.00,CLR,,0.17,WeatherDisplay:10.37,2013-08-28 19:01:00,
2013-08-28 15:02:00,76.1,23.4,29.98,NNW,336,0.0,0.0,14,0.00,CLR,,0.17,WeatherDisplay:10.37,2013-08-28 19:02:00,
2013-08-28 15:03:00,76.1,23.4,29.98,NNW,336,0.0,0.0,14,0.00,CLR,,0.17,WeatherDisplay:10.37,2013-08-28 19:03:00,
2013-08-28 15:04:00,76.1,23.4,29.98,NNW,336,0.0,0.0,14,0.00,CLR,,0.17,WeatherDisplay:10.37,2013-08-28 19:04:00,
2013-08-28 15:06:00,76.1,23.4,29.98,NNW,336,0.0,0.0,14,0.00,CLR,,0.17,WeatherDisplay:10.37,2013-08-28 19:06:00,
2013-08-28 15:07:00,76.3,23.6,29.98,NNW,336,0.0,0.0,14,0.00,CLR,,0.17,WeatherDisplay:10.37,2013-08-28 19:07:00,
2013-08-28 15:08:00,76.3,21.8,29.98,NNW,336,0.0,0.0,13,0.00,CLR,,0.17,WeatherDisplay:10.37,2013-08-28 19:08:00,
2013-08-28 15:10:00,76.7,16.0,29.98,NNW,336,0.0,0.0,10,0.00,CLR,,0.17,WeatherDisplay:10.37,2013-08-28 19:10:00,
2013-08-28 15:12:00,76.8,13.6,29.98,NNW,336,0.0,0.0,9,0.00,CLR,,0.17,WeatherDisplay:10.37,2013-08-28 19:12:00,
2013-08-28 15:13:00,76.9,16.1,29.98,NNW,336,0.0,0.0,10,0.00,CLR,,0.17,WeatherDisplay:10.37,2013-08-28 19:13:00,
2013-08-28 15:15:00,77.7,11.6,29.97,NNW,336,0.0,0.0,8,0.00,CLR,,0.17,WeatherDisplay:10.37,2013-08-28 19:15:00,
2013-08-28 15:16:00,76.9,11.0,29.97,NNW,336,0.0,0.0,8,0.00,CLR,,0.17,WeatherDisplay:10.37,2013-08-28 19:16:00,
2013-08-28 15:17:00,77.2,8.3,29.97,NNW,336,0.0,0.0,7,0.00,CLR,,0.17,WeatherDisplay:10.37,2013-08-28 19:17:00,
2013-08-28 15:18:00,77.2,11.3,29.97,NNW,336,0.0,0.0,8,0.00,CLR,,0.17,WeatherDisplay:10.37,2013-08-28 19:18:00,
2013-08-28 15:20:00,77.1,4.8,29.97,NNW,336,0.0,0.0,6,0.00,CLR,,0.17,WeatherDisplay:10.37,2013-08-28 19:20:00,
2013-08-28 15:21:00,78.2,5.6,29.97,NNW,336,0.0,0.0,6,0.00,CLR,,0.17,WeatherDisplay:10.37,2013-08-28 19:21:00,
2013-08-28 15:22:00,77.9,5.4,29.97,NNW,336,0.0,0.0,6,0.00,CLR,,0.17,WeatherDisplay:10.37,2013-08-28 19:22:00,
2013-08-28 15:23:00,77.1,4.8,29.97,NNW,336,0.0,0.0,6,0.00,CLR,,0.17,WeatherDisplay:10.37,2013-08-28 19:23:00,
2013-08-28 15:24:00,78.0,5.5,29.97,NNW,336,0.0,0.0,6,0.00,CLR,,0.17,WeatherDisplay:10.37,2013-08-28 19:24:00,
2013-08-28 15:25:00,77.5,5.1,29.97,NNW,336,0.0,0.0,6,0.00,CLR,,0.17,WeatherDisplay:10.37,2013-08-28 19:25:00,
2013-08-28 15:26:00,78.0,1.5,29.97,NNW,336,0.0,0.0,5,0.00,CLR,,0.17,WeatherDisplay:10.37,2013-08-28 19:26:00,
2013-08-28 15:27:00,77.3,1.0,29.97,NNW,336,0.0,0.0,5,0.00,CLR,,0.17,WeatherDisplay:10.37,2013-08-28 19:27:00,
2013-08-28 15:28:00,78.1,1.6,29.97,NNW,336,0.0,0.0,5,0.00,CLR,,0.17,WeatherDisplay:10.37,2013-08-28 19:28:00,
2013-08-28 15:29:00,78.4,1.8,29.97,NNW,336,0.0,0.0,5,0.00,CLR,,0.17,WeatherDisplay:10.37,2013-08-28 19:29:00,
2013-08-28 15:30:00,78.1,1.6,29.97,NNW,336,0.0,0.0,5,0.00,CLR,,0.17,WeatherDisplay:10.37,2013-08-28 19:30:00,
2013-08-28 15:32:00,78.5,1.9,29.96,NNW,336,0.0,0.0,5,0.00,CLR,,0.17,WeatherDisplay:10.37,2013-08-28 19:32:00,
2013-08-28 15:33:00,77.1,0.9,29.96,NNW,336,0.0,0.0,5,0.00,CLR,,0.17,WeatherDisplay:10.37,2013-08-28 19:33:00,
2013-08-28 15:35:00,77.7,1.3,29.96,NNW,336,0.0,0.0,5,0.00,CLR,,0.17,WeatherDisplay:10.37,2013-08-28 19:35:00,
2013-08-28 15:37:00,78.2,1.6,29.96,NNW,336,0.0,0.0,5,0.00,CLR,,0.17,WeatherDisplay:10.37,2013-08-28 19:37:00,
2013-08-28 15:38:00,78.0,1.5,29.96,NNW,336,0.0,0.0,5,0.00,CLR,,0.17,WeatherDisplay:10.37,2013-08-28 19:38:00,
2013-08-28 15:39:00,78.8,2.1,29.96,NNW,336,0.0,0.0,5,0.00,CLR,,0.17,WeatherDisplay:10.37,2013-08-28 19:39:00,
2013-08-28 15:40:00,79.1,-2.5,29.96,NNW,336,0.0,0.0,4,0.00,CLR,,0.17,WeatherDisplay:10.37,2013-08-28 19:40:00,
2013-08-28 15:41:00,78.7,-2.8,29.96,NNW,336,0.0,0.0,4,0.00,CLR,,0.17,WeatherDisplay:10.37,2013-08-28 19:41:00,
2013-08-28 15:42:00,79.2,-16.5,29.96,ESE,106,3.1,4.6,2,0.00,CLR,,0.17,WeatherDisplay:10.37,2013-08-28 19:42:00,
2013-08-28 15:43:00,80.0,-16.0,29.96,East,97,3.2,4.6,2,0.00,CLR,,0.17,WeatherDisplay:10.37,2013-08-28 19:43:00,
2013-08-28 15:45:00,80.4,-15.7,29.96,SSE,151,5.0,5.8,2,0.00,CLR,,0.17,WeatherDisplay:10.37,2013-08-28 19:45:00,
2013-08-28 15:46:00,78.9,-16.7,29.95,ESE,107,2.6,5.8,2,0.00,CLR,,0.17,WeatherDisplay:10.37,2013-08-28 19:46:00,
2013-08-28 15:47:00,79.9,-16.1,29.95,ESE,107,0.0,0.0,2,0.00,CLR,,0.17,WeatherDisplay:10.37,2013-08-28 19:47:00,
2013-08-28 15:48:00,80.3,-15.8,29.95,ESE,107,0.0,0.0,2,0.00,CLR,,0.17,WeatherDisplay:10.37,2013-08-28 19:48:00,
2013-08-28 15:50:00,79.5,-16.3,29.95,ESE,107,0.0,0.0,2,0.00,CLR,,0.17,WeatherDisplay:10.37,2013-08-28 19:50:00,
2013-08-28 15:51:00,80.9,-15.4,29.95,ESE,107,0.0,0.0,2,0.00,CLR,,0.17,WeatherDisplay:10.37,2013-08-28 19:51:00,
2013-08-28 15:52:00,80.9,-15.4,29.95,ESE,107,0.0,0.0,2,0.00,CLR,,0.17,WeatherDisplay:10.37,2013-08-28 19:52:00,
2013-08-28 15:53:00,80.1,-15.9,29.95,ESE,107,0.0,0.0,2,0.00,CLR,,0.17,WeatherDisplay:10.37,2013-08-28 19:53:00,
2013-08-28 15:56:00,80.2,-15.9,29.95,ESE,107,0.0,0.0,2,0.00,CLR,,0.17,WeatherDisplay:10.37,2013-08-28 19:56:00,
2013-08-28 15:57:00,80.9,-15.4,29.95,SSE,162,1.3,3.2,2,0.00,CLR,,0.17,WeatherDisplay:10.37,2013-08-28 19:57:00,
2013-08-28 15:58:00,80.9,-15.4,29.95,SSE,162,0.7,4.6,2,0.00,CLR,,0.17,WeatherDisplay:10.37,2013-08-28 19:58:00,
2013-08-28 16:01:00,81.3,-15.2,29.95,SE,136,0.8,3.5,2,0.00,CLR,,0.17,WeatherDisplay:10.37,2013-08-28 20:01:00,
2013-08-28 16:02:00,81.3,-15.2,29.95,SE,124,1.6,3.5,2,0.00,CLR,,0.17,WeatherDisplay:10.37,2013-08-28 20:02:00,
2013-08-28 16:03:00,80.4,-15.7,29.95,SE,124,0.0,3.5,2,0.00,CLR,,0.17,WeatherDisplay:10.37,2013-08-28 20:03:00,
2013-08-28 16:05:00,81.2,-15.2,29.95,ESE,110,0.0,2.3,2,0.00,CLR,,0.17,WeatherDisplay:10.37,2013-08-28 20:05:00,
2013-08-28 16:07:00,80.9,-15.4,29.95,ESE,110,0.0,0.0,2,0.00,CLR,,0.17,WeatherDisplay:10.37,2013-08-28 20:07:00,
2013-08-28 16:08:00,81.4,-15.1,29.95,ESE,110,0.0,0.0,2,0.00,CLR,,0.17,WeatherDisplay:10.37,2013-08-28 20:08:00,
2013-08-28 16:10:00,81.5,-15.0,29.95,ESE,110,0.0,0.0,2,0.00,CLR,,0.17,WeatherDisplay:10.37,2013-08-28 20:10:00,
2013-08-28 16:12:00,81.3,-15.2,29.95,ESE,110,0.0,0.0,2,0.00,CLR,,0.17,WeatherDisplay:10.37,2013-08-28 20:12:00,
2013-08-28 16:13:00,80.4,-15.7,29.95,ESE,110,0.0,0.0,2,0.00,CLR,,0.17,WeatherDisplay:10.37,2013-08-28 20:13:00,
2013-08-28 16:16:00,80.5,-15.7,29.95,ESE,110,0.0,0.0,2,0.00,CLR,,0.17,WeatherDisplay:10.37,2013-08-28 20:16:00,
2013-08-28 16:17:00,81.6,-15.0,29.95,ESE,110,0.0,0.0,2,0.00,CLR,,0.17,WeatherDisplay:10.37,2013-08-28 20:17:00,
2013-08-28 16:18:00,81.3,-15.2,29.95,ESE,110,0.0,0.0,2,0.00,CLR,,0.17,WeatherDisplay:10.37,2013-08-28 20:18:00,
2013-08-28 16:21:00,80.5,-15.7,29.95,ESE,110,0.0,0.0,2,0.00,CLR,,0.17,WeatherDisplay:10.37,2013-08-28 20:21:00,
2013-08-28 16:22:00,81.1,-15.3,29.95,ESE,110,0.0,0.0,2,0.00,CLR,,0.17,WeatherDisplay:10.37,2013-08-28 20:22:00,
2013-08-28 16:23:00,80.4,-15.7,29.95,ESE,110,0.0,0.0,2,0.00,CLR,,0.17,WeatherDisplay:10.37,2013-08-28 20:23:00,
2013-08-28 16:24:00,81.0,-15.3,29.95,ESE,110,0.0,0.0,2,0.00,CLR,,0.17,WeatherDisplay:10.37,2013-08-28 20:24:00,
2013-08-28 16:26:00,81.1,-15.3,29.95,ESE,110,0.0,0.0,2,0.00,CLR,,0.17,WeatherDisplay:10.37,2013-08-28 20:26:00,
2013-08-28 16:27:00,80.8,-15.5,29.95,ESE,110,0.0,0.0,2,0.00,CLR,,0.17,WeatherDisplay:10.37,2013-08-28 20:27:00,
2013-08-28 16:28:00,80.7,-15.5,29.95,ESE,110,0.0,0.0,2,0.00,CLR,,0.17,WeatherDisplay:10.37,2013-08-28 20:28:00,
2013-08-28 16:29:00,81.1,-15.3,29.95,ESE,110,0.0,0.0,2,0.00,CLR,,0.17,WeatherDisplay:10.37,2013-08-28 20:29:00,
2013-08-28 16:30:00,81.2,-15.2,29.95,ESE,110,0.0,0.0,2,0.00,CLR,,0.17,WeatherDisplay:10.37,2013-08-28 20:30:00,
2013-08-28 16:32:00,80.6,-15.6,29.95,ESE,110,0.0,0.0,2,0.00,CLR,,0.17,WeatherDisplay:10.37,2013-08-28 20:32:00,
2013-08-28 16:33:00,80.6,-15.6,29.94,ESE,110,0.0,0.0,2,0.00,CLR,,0.17,WeatherDisplay:10.37,2013-08-28 20:33:00,
2013-08-28 16:34:00,80.9,-15.4,29.94,ESE,110,0.0,0.0,2,0.00,CLR,,0.17,WeatherDisplay:10.37,2013-08-28 20:34:00,
2013-08-28 16:36:00,81.4,-15.1,29.94,ESE,110,0.0,0.0,2,0.00,CLR,,0.17,WeatherDisplay:10.37,2013-08-28 20:36:00,
2013-08-28 16:37:00,82.4,-14.4,29.94,ESE,110,0.0,0.0,2,0.00,CLR,,0.17,WeatherDisplay:10.37,2013-08-28 20:37:00,
2013-08-28 16:38:00,81.7,-14.9,29.94,ESE,110,0.0,0.0,2,0.00,CLR,,0.17,WeatherDisplay:10.37,2013-08-28 20:38:00,
2013-08-28 16:39:00,82.5,-14.4,29.94,ESE,110,0.0,0.0,2,0.00,CLR,,0.17,WeatherDisplay:10.37,2013-08-28 20:39:00,
2013-08-28 16:40:00,83.1,-14.0,29.94,ESE,110,0.0,0.0,2,0.00,CLR,,0.17,WeatherDisplay:10.37,2013-08-28 20:40:00,
2013-08-28 16:41:00,81.8,-14.8,29.94,ESE,110,0.0,0.0,2,0.00,CLR,,0.17,WeatherDisplay:10.37,2013-08-28 20:41:00,
2013-08-28 16:42:00,82.2,-14.6,29.94,South,171,3.3,5.8,2,0.00,CLR,,0.17,WeatherDisplay:10.37,2013-08-28 20:42:00,
2013-08-28 16:43:00,82.2,-14.6,29.94,SE,141,4.8,5.8,2,0.00,CLR,,0.17,WeatherDisplay:10.37,2013-08-28 20:43:00,
2013-08-28 16:44:00,82.0,-14.7,29.94,SSE,147,4.3,5.8,2,0.00,CLR,,0.17,WeatherDisplay:10.37,2013-08-28 20:44:00,
2013-08-28 16:45:00,82.4,-14.4,29.93,SSE,147,0.0,0.0,2,0.00,CLR,,0.17,WeatherDisplay:10.37,2013-08-28 20:45:00,
2013-08-28 16:46:00,82.4,-14.4,29.93,SSE,147,0.0,0.0,2,0.00,CLR,,0.17,WeatherDisplay:10.37,2013-08-28 20:46:00,
2013-08-28 16:48:00,82.9,-14.1,29.93,SSE,147,0.0,0.0,2,0.00,CLR,,0.17,WeatherDisplay:10.37,2013-08-28 20:48:00,
2013-08-28 16:49:00,83.4,-13.8,29.93,SSE,147,0.0,0.0,2,0.00,CLR,,0.17,WeatherDisplay:10.37,2013-08-28 20:49:00,
2013-08-28 16:51:00,83.2,-13.9,29.93,SSE,147,0.0,0.0,2,0.00,CLR,,0.17,WeatherDisplay:10.37,2013-08-28 20:51:00,
2013-08-28 16:53:00,83.3,-13.9,29.93,SSE,147,0.0,0.0,2,0.00,CLR,,0.17,WeatherDisplay:10.37,2013-08-28 20:53:00,
2013-08-28 16:54:00,83.2,-13.9,29.93,SSE,147,0.0,0.0,2,0.00,CLR,,0.17,WeatherDisplay:10.37,2013-08-28 20:54:00,
2013-08-28 16:56:00,82.3,-14.5,29.93,SSE,147,0.0,0.0,2,0.00,CLR,,0.17,WeatherDisplay:10.37,2013-08-28 20:56:00,
2013-08-28 16:58:00,83.0,-14.1,29.93,SSE,147,0.0,0.0,2,0.00,CLR,,0.17,WeatherDisplay:10.37,2013-08-28 20:58:00,
2013-08-28 16:59:00,82.1,-14.6,29.93,SSE,147,0.0,0.0,2,0.00,CLR,,0.17,WeatherDisplay:10.37,2013-08-28 20:59:00,
2013-08-28 17:02:00,82.5,-14.4,29.93,SSE,147,0.0,0.0,2,0.00,CLR,,0.17,WeatherDisplay:10.37,2013-08-28 21:02:00,
2013-08-28 17:03:00,82.0,-14.7,29.93,SSE,147,0.0,0.0,2,0.00,CLR,,0.17,WeatherDisplay:10.37,2013-08-28 21:03:00,
2013-08-28 17:04:00,81.4,-15.1,29.93,SSE,147,0.0,0.0,2,0.00,CLR,,0.17,WeatherDisplay:10.37,2013-08-28 21:04:00,
2013-08-28 17:05:00,82.2,-14.6,29.93,SSE,147,0.0,0.0,2,0.00,CLR,,0.17,WeatherDisplay:10.37,2013-08-28 21:05:00,
2013-08-28 17:08:00,82.0,-14.7,29.93,SSE,147,0.0,0.0,2,0.00,CLR,,0.17,WeatherDisplay:10.37,2013-08-28 21:08:00,
2013-08-28 17:09:00,82.3,-14.5,29.93,SSE,147,0.0,0.0,2,0.00,CLR,,0.17,WeatherDisplay:10.37,2013-08-28 21:09:00,
2013-08-28 17:10:00,81.6,-15.0,29.93,SSE,147,0.0,0.0,2,0.00,CLR,,0.17,WeatherDisplay:10.37,2013-08-28 21:10:00,
2013-08-28 17:13:00,83.1,-14.0,29.93,SSE,147,0.0,0.0,2,0.00,CLR,,0.17,WeatherDisplay:10.37,2013-08-28 21:13:00,
2013-08-28 17:14:00,81.9,-14.8,29.93,SSE,147,0.0,0.0,2,0.00,CLR,,0.17,WeatherDisplay:10.37,2013-08-28 21:14:00,
2013-08-28 17:15:00,81.9,-14.8,29.93,SSE,147,0.0,0.0,2,0.00,CLR,,0.17,WeatherDisplay:10.37,2013-08-28 21:15:00,
2013-08-28 17:18:00,82.1,-14.6,29.93,SSE,147,0.0,0.0,2,0.00,CLR,,0.17,WeatherDisplay:10.37,2013-08-28 21:18:00,
2013-08-28 17:19:00,82.0,-14.7,29.93,SSE,147,0.0,0.0,2,0.00,CLR,,0.17,WeatherDisplay:10.37,2013-08-28 21:19:00,
2013-08-28 17:20:00,81.5,-15.0,29.93,SSE,147,0.0,0.0,2,0.00,CLR,,0.17,WeatherDisplay:10.37,2013-08-28 21:20:00,
2013-08-28 17:21:00,81.2,-15.2,29.93,SSE,147,0.0,0.0,2,0.00,CLR,,0.17,WeatherDisplay:10.37,2013-08-28 21:21:00,
2013-08-28 17:24:00,82.7,-14.3,29.92,SSE,147,0.0,0.0,2,0.00,CLR,,0.17,WeatherDisplay:10.37,2013-08-28 21:24:00,
2013-08-28 17:25:00,82.5,-14.4,29.92,SSE,147,0.0,0.0,2,0.00,CLR,,0.17,WeatherDisplay:10.37,2013-08-28 21:25:00,
2013-08-28 17:26:00,82.3,-14.5,29.92,SSE,147,0.0,0.0,2,0.00,CLR,,0.17,WeatherDisplay:10.37,2013-08-28 21:26:00,
2013-08-28 17:29:00,82.4,-14.4,29.92,WSW,237,0.2,4.6,2,0.00,CLR,,0.17,WeatherDisplay:10.37,2013-08-28 21:29:00,
2013-08-28 17:30:00,82.4,-14.4,29.92,WSW,237,0.1,4.6,2,0.00,CLR,,0.17,WeatherDisplay:10.37,2013-08-28 21:30:00,
2013-08-28 17:31:00,82.1,-14.6,29.92,NW,304,1.4,6.9,2,0.00,CLR,,0.17,WeatherDisplay:10.37,2013-08-28 21:31:00,
2013-08-28 17:35:00,82.3,-14.5,29.92,WSW,247,6.4,10.4,2,0.00,CLR,,0.17,WeatherDisplay:10.37,2013-08-28 21:35:00,
2013-08-28 17:36:00,83.3,-13.9,29.92,WSW,256,3.7,8.1,2,0.00,CLR,,0.17,WeatherDisplay:10.37,2013-08-28 21:36:00,
2013-08-28 17:40:00,82.5,-14.4,29.92,West,264,5.2,5.9,2,0.00,CLR,,0.17,WeatherDisplay:10.37,2013-08-28 21:40:00,
2013-08-28 17:41:00,82.5,-14.4,29.93,WNW,294,4.8,7.3,2,0.00,CLR,,0.17,WeatherDisplay:10.37,2013-08-28 21:41:00,
2013-08-28 17:42:00,83.7,-13.6,29.93,WNW,288,2.5,7.3,2,0.00,CLR,,0.17,WeatherDisplay:10.37,2013-08-28 21:42:00,
2013-08-28 17:45:00,84.2,-13.3,29.93,WNW,282,0.0,8.1,2,0.00,CLR,,0.17,WeatherDisplay:10.37,2013-08-28 21:45:00,
2013-08-28 17:46:00,84.0,-13.4,29.93,WNW,282,0.0,0.0,2,0.00,CLR,,0.17,WeatherDisplay:10.37,2013-08-28 21:46:00,
2013-08-28 17:47:00,83.1,-14.0,29.93,WNW,282,0.0,0.0,2,0.00,CLR,,0.17,WeatherDisplay:10.37,2013-08-28 21:47:00,
2013-08-28 17:50:00,82.8,-14.2,29.93,WNW,282,0.0,0.0,2,0.00,CLR,,0.17,WeatherDisplay:10.37,2013-08-28 21:50:00,
2013-08-28 17:51:00,84.7,-13.0,29.93,WNW,282,0.0,0.0,2,0.00,CLR,,0.17,WeatherDisplay:10.37,2013-08-28 21:51:00,
2013-08-28 17:52:00,83.5,-13.7,29.93,WNW,282,0.0,0.0,2,0.00,CLR,,0.17,WeatherDisplay:10.37,2013-08-28 21:52:00,
2013-08-28 17:53:00,83.0,-14.1,29.93,WNW,282,0.0,0.0,2,0.00,CLR,,0.17,WeatherDisplay:10.37,2013-08-28 21:53:00,
2013-08-28 17:55:00,83.9,-13.5,29.93,West,268,0.6,0.0,2,0.00,CLR,,0.17,WeatherDisplay:10.37,2013-08-28 21:55:00,
2013-08-28 17:56:00,83.6,-13.7,29.93,South,185,1.1,3.0,2,0.00,CLR,,0.17,WeatherDisplay:10.37,2013-08-28 21:56:00,
2013-08-28 17:57:00,83.6,-13.7,29.93,South,185,0.1,4.6,2,0.00,CLR,,0.17,WeatherDisplay:10.37,2013-08-28 21:57:00,
2013-08-28 17:58:00,84.4,-13.2,29.93,South,185,0.0,0.0,2,0.00,CLR,,0.17,WeatherDisplay:10.37,2013-08-28 21:58:00,
2013-08-28 18:00:00,82.7,-14.3,29.92,WSW,256,4.9,9.2,2,0.00,CLR,,0.17,WeatherDisplay:10.37,2013-08-28 22:00:00,
2013-08-28 18:01:00,83.0,-14.1,29.92,WSW,240,2.1,8.1,2,0.00,CLR,,0.17,WeatherDisplay:10.37,2013-08-28 22:01:00,
2013-08-28 18:02:00,82.5,-14.4,29.92,WSW,240,1.1,8.1,2,0.00,CLR,,0.17,WeatherDisplay:10.37,2013-08-28 22:02:00,
2013-08-28 18:03:00,82.0,-14.7,29.92,WSW,240,0.0,0.0,2,0.00,CLR,,0.17,WeatherDisplay:10.37,2013-08-28 22:03:00,
2013-08-28 18:04:00,81.4,-15.1,29.92,WSW,240,0.0,0.0,2,0.00,CLR,,0.17,WeatherDisplay:10.37,2013-08-28 22:04:00,
2013-08-28 18:05:00,82.1,-14.6,29.92,WSW,240,0.0,0.0,2,0.00,CLR,,0.17,WeatherDisplay:10.37,2013-08-28 22:05:00,
2013-08-28 18:07:00,81.5,-15.0,29.92,WSW,240,0.0,0.0,2,0.00,CLR,,0.17,WeatherDisplay:10.37,2013-08-28 22:07:00,
2013-08-28 18:08:00,81.7,-14.9,29.92,WSW,240,0.2,3.4,2,0.00,CLR,,0.17,WeatherDisplay:10.37,2013-08-28 22:08:00,
2013-08-28 18:09:00,80.6,-15.6,29.93,SSW,203,3.3,3.5,2,0.00,CLR,,0.17,WeatherDisplay:10.37,2013-08-28 22:09:00,
2013-08-28 18:10:00,80.4,-15.7,29.93,SSW,203,0.0,0.0,2,0.00,CLR,,0.17,WeatherDisplay:10.37,2013-08-28 22:10:00,
2013-08-28 18:12:00,80.3,-15.8,29.92,SSW,203,0.0,0.0,2,0.00,CLR,,0.17,WeatherDisplay:10.37,2013-08-28 22:12:00,
2013-08-28 18:13:00,81.2,-15.2,29.92,SSW,203,0.0,0.0,2,0.00,CLR,,0.17,WeatherDisplay:10.37,2013-08-28 22:13:00,
2013-08-28 18:14:00,80.1,-15.9,29.92,SSW,203,0.0,0.0,2,0.00,CLR,,0.17,WeatherDisplay:10.37,2013-08-28 22:14:00,
2013-08-28 18:16:00,81.3,-15.2,29.92,SSW,203,0.0,0.0,2,0.00,CLR,,0.17,WeatherDisplay:10.37,2013-08-28 22:16:00,
2013-08-28 18:17:00,80.1,-15.9,29.93,SSW,203,0.0,0.0,2,0.00,CLR,,0.17,WeatherDisplay:10.37,2013-08-28 22:17:00,
2013-08-28 18:19:00,80.3,-15.8,29.92,SSW,203,0.0,0.0,2,0.00,CLR,,0.17,WeatherDisplay:10.37,2013-08-28 22:19:00,
2013-08-28 18:20:00,81.1,-15.3,29.92,SSW,203,0.0,0.0,2,0.00,CLR,,0.17,WeatherDisplay:10.37,2013-08-28 22:20:00,
2013-08-28 18:21:00,79.9,-16.1,29.92,SSW,203,0.0,0.0,2,0.00,CLR,,0.17,WeatherDisplay:10.37,2013-08-28 22:21:00,
2013-08-28 18:22:00,78.8,-16.8,29.92,SW,224,2.3,5.8,2,0.00,CLR,,0.17,WeatherDisplay:10.37,2013-08-28 22:22:00,
2013-08-28 18:23:00,80.0,-16.0,29.92,SW,224,1.0,5.8,2,0.00,CLR,,0.17,WeatherDisplay:10.37,2013-08-28 22:23:00,
2013-08-28 18:24:00,79.2,-16.5,29.92,SW,224,0.0,0.0,2,0.00,CLR,,0.17,WeatherDisplay:10.37,2013-08-28 22:24:00,
2013-08-28 18:26:00,79.0,-16.6,29.92,SW,224,0.0,0.0,2,0.00,CLR,,0.17,WeatherDisplay:10.37,2013-08-28 22:26:00,
2013-08-28 18:27:00,80.1,-15.9,29.92,SW,224,0.0,0.0,2,0.00,CLR,,0.17,WeatherDisplay:10.37,2013-08-28 22:27:00,
2013-08-28 18:28:00,78.9,-16.7,29.92,SW,224,0.0,0.0,2,0.00,CLR,,0.17,WeatherDisplay:10.37,2013-08-28 22:28:00,
2013-08-28 18:29:00,79.2,-16.5,29.92,SW,224,0.0,0.0,2,0.00,CLR,,0.17,WeatherDisplay:10.37,2013-08-28 22:29:00,
2013-08-28 18:30:00,78.3,-17.1,29.92,WNW,285,2.3,5.8,2,0.00,CLR,,0.17,WeatherDisplay:10.37,2013-08-28 22:30:00,
2013-08-28 18:31:00,78.2,-17.2,29.92,West,275,4.3,8.1,2,0.00,CLR,,0.17,WeatherDisplay:10.37,2013-08-28 22:31:00,
2013-08-28 18:32:00,79.8,-16.1,29.92,NW,319,2.0,6.1,2,0.00,CLR,,0.17,WeatherDisplay:10.37,2013-08-28 22:32:00,
2013-08-28 18:33:00,78.9,-16.7,29.92,NW,319,2.7,3.5,2,0.00,CLR,,0.17,WeatherDisplay:10.37,2013-08-28 22:33:00,
2013-08-28 18:35:00,79.8,-16.1,29.92,NW,319,0.0,0.0,2,0.00,CLR,,0.17,WeatherDisplay:10.37,2013-08-28 22:35:00,
2013-08-28 18:36:00,80.0,-16.0,29.92,NW,319,0.0,0.0,2,0.00,CLR,,0.17,WeatherDisplay:10.37,2013-08-28 22:36:00,
2013-08-28 18:37:00,78.7,-16.8,29.93,NW,319,0.0,0.0,2,0.00,CLR,,0.17,WeatherDisplay:10.37,2013-08-28 22:37:00,
2013-08-28 18:38:00,78.7,-16.8,29.93,NW,319,0.0,0.0,2,0.00,CLR,,0.17,WeatherDisplay:10.37,2013-08-28 22:38:00,
2013-08-28 18:40:00,78.7,-16.8,29.92,NW,319,0.0,0.0,2,0.00,CLR,,0.17,WeatherDisplay:10.37,2013-08-28 22:40:00,
2013-08-28 18:41:00,79.0,-16.6,29.92,NW,319,0.0,0.0,2,0.00,CLR,,0.17,WeatherDisplay:10.37,2013-08-28 22:41:00,
2013-08-28 18:43:00,78.8,-16.8,29.92,NW,319,0.0,0.0,2,0.00,CLR,,0.17,WeatherDisplay:10.37,2013-08-28 22:43:00,
2013-08-28 18:46:00,78.2,-17.2,29.92,NW,319,0.0,0.0,2,0.00,CLR,,0.17,WeatherDisplay:10.37,2013-08-28 22:46:00,
2013-08-28 18:47:00,79.8,-16.1,29.93,NW,319,0.0,0.0,2,0.00,CLR,,0.17,WeatherDisplay:10.37,2013-08-28 22:47:00,
2013-08-28 18:48:00,78.9,-16.7,29.93,NW,319,0.0,0.0,2,0.00,CLR,,0.17,WeatherDisplay:10.37,2013-08-28 22:48:00,
2013-08-28 18:51:00,79.1,-16.6,29.93,NW,319,0.0,0.0,2,0.00,CLR,,0.17,WeatherDisplay:10.37,2013-08-28 22:51:00,
2013-08-28 18:53:00,79.3,-16.4,29.92,NW,319,0.0,0.0,2,0.00,CLR,,0.17,WeatherDisplay:10.37,2013-08-28 22:53:00,
2013-08-28 18:54:00,78.8,-16.8,29.92,NW,319,0.0,0.0,2,0.00,CLR,,0.17,WeatherDisplay:10.37,2013-08-28 22:54:00,
2013-08-28 18:55:00,78.9,-16.7,29.92,SW,223,0.2,2.3,2,0.00,CLR,,0.17,WeatherDisplay:10.37,2013-08-28 22:55:00,
2013-08-28 18:56:00,77.8,-17.4,29.92,SW,223,0.0,2.3,2,0.00,CLR,,0.17,WeatherDisplay:10.37,2013-08-28 22:56:00,
2013-08-28 18:57:00,78.1,-17.2,29.92,SW,223,0.0,0.0,2,0.00,CLR,,0.17,WeatherDisplay:10.37,2013-08-28 22:57:00,
2013-08-28 18:58:00,79.4,-16.4,29.92,SW,223,0.0,0.0,2,0.00,CLR,,0.17,WeatherDisplay:10.37,2013-08-28 22:58:00,
2013-08-28 18:59:00,78.7,-16.8,29.92,SW,223,0.0,0.0,2,0.00,CLR,,0.17,WeatherDisplay:10.37,2013-08-28 22:59:00,
2013-08-28 19:00:00,78.0,-17.3,29.91,SW,223,0.0,0.0,2,0.00,CLR,,0.17,WeatherDisplay:10.37,2013-08-28 23:00:00,
2013-08-28 19:01:00,78.2,-17.2,29.91,SW,223,0.0,0.0,2,0.00,CLR,,0.17,WeatherDisplay:10.37,2013-08-28 23:01:00,
2013-08-28 19:02:00,78.1,-17.2,29.91,SW,223,0.0,0.0,2,0.00,CLR,,0.17,WeatherDisplay:10.37,2013-08-28 23:02:00,
2013-08-28 19:04:00,77.8,-17.4,29.91,SW,223,0.0,0.0,2,0.00,CLR,,0.17,WeatherDisplay:10.37,2013-08-28 23:04:00,
2013-08-28 19:05:00,77.9,-17.3,29.91,SW,223,0.0,0.0,2,0.00,CLR,,0.17,WeatherDisplay:10.37,2013-08-28 23:05:00,
2013-08-28 19:06:00,77.3,-17.7,29.91,SW,223,0.0,0.0,2,0.00,CLR,,0.17,WeatherDisplay:10.37,2013-08-28 23:06:00,
2013-08-28 19:08:00,77.9,-17.3,29.91,SW,223,0.0,0.0,2,0.00,CLR,,0.17,WeatherDisplay:10.37,2013-08-28 23:08:00,
2013-08-28 19:09:00,77.9,-17.3,29.91,SW,223,0.0,0.0,2,0.00,CLR,,0.17,WeatherDisplay:10.37,2013-08-28 23:09:00,
2013-08-28 19:10:00,77.9,-17.3,29.91,SW,223,0.0,0.0,2,0.00,CLR,,0.17,WeatherDisplay:10.37,2013-08-28 23:10:00,
2013-08-28 19:11:00,78.1,-17.2,29.90,SW,223,0.0,0.0,2,0.00,CLR,,0.17,WeatherDisplay:10.37,2013-08-28 23:11:00,
2013-08-28 19:14:00,77.0,-17.9,29.90,SW,223,0.0,0.0,2,0.00,CLR,,0.17,WeatherDisplay:10.37,2013-08-28 23:14:00,
2013-08-28 19:16:00,77.0,-17.9,29.91,SW,223,0.0,0.0,2,0.00,CLR,,0.17,WeatherDisplay:10.37,2013-08-28 23:16:00,
2013-08-28 19:17:00,77.7,-17.5,29.91,SW,223,0.0,0.0,2,0.00,CLR,,0.17,WeatherDisplay:10.37,2013-08-28 23:17:00,
2013-08-28 19:19:00,78.2,-17.2,29.91,ENE,58,0.4,5.9,2,0.00,CLR,,0.17,WeatherDisplay:10.37,2013-08-28 23:19:00,
2013-08-28 19:20:00,77.3,-3.7,29.91,NE,56,0.2,5.8,4,0.00,CLR,,0.17,WeatherDisplay:10.37,2013-08-28 23:20:00,
2013-08-28 19:21:00,77.3,-3.7,29.91,ESE,109,0.3,4.6,4,0.00,CLR,,0.17,WeatherDisplay:10.37,2013-08-28 23:21:00,
2013-08-28 19:22:00,77.1,-9.8,29.91,ESE,109,0.0,3.5,3,0.00,CLR,,0.17,WeatherDisplay:10.37,2013-08-28 23:22:00,
2013-08-28 19:24:00,76.8,-18.1,29.91,ESE,109,0.0,0.0,2,0.00,CLR,,0.17,WeatherDisplay:10.37,2013-08-28 23:24:00,
2013-08-28 19:25:00,76.4,-4.3,29.91,East,89,7.1,9.8,4,0.00,CLR,,0.17,WeatherDisplay:10.37,2013-08-28 23:25:00,
2013-08-28 19:27:00,76.5,-4.3,29.91,East,80,6.4,9.2,4,0.00,CLR,,0.17,WeatherDisplay:10.37,2013-08-28 23:27:00,
2013-08-28 19:28:00,76.5,-4.3,29.91,ESE,104,3.6,5.8,4,0.00,CLR,,0.17,WeatherDisplay:10.37,2013-08-28 23:28:00,
2013-08-28 19:29:00,76.5,-4.3,29.91,East,93,4.1,6.9,4,0.00,CLR,,0.17,WeatherDisplay:10.37,2013-08-28 23:29:00,
2013-08-28 19:31:00,76.4,-10.3,29.91,SE,138,0.8,4.8,3,0.00,CLR,,0.17,WeatherDisplay:10.37,2013-08-28 23:31:00,
2013-08-28 19:32:00,76.7,-10.1,29.91,ESE,119,4.1,5.8,3,0.00,CLR,,0.17,WeatherDisplay:10.37,2013-08-28 23:32:00,
2013-08-28 19:33:00,76.7,-4.1,29.91,ESE,120,2.6,4.6,4,0.00,CLR,,0.17,WeatherDisplay:10.37,2013-08-28 23:33:00,
2013-08-28 19:34:00,76.4,-4.3,29.91,ESE,120,0.5,4.6,4,0.00,CLR,,0.17,WeatherDisplay:10.37,2013-08-28 23:34:00,
2013-08-28 19:35:00,76.3,-4.4,29.91,ESE,120,0.0,4.6,4,0.00,CLR,,0.17,WeatherDisplay:10.37,2013-08-28 23:35:00,
2013-08-28 19:36:00,76.0,0.1,29.91,ENE,66,2.1,4.5,5,0.00,CLR,,0.17,WeatherDisplay:10.37,2013-08-28 23:36:00,
2013-08-28 19:37:00,76.5,0.4,29.91,ENE,68,1.6,5.8,5,0.00,CLR,,0.17,WeatherDisplay:10.37,2013-08-28 23:37:00,
2013-08-28 19:38:00,76.2,0.2,29.91,ENE,68,0.0,0.0,5,0.00,CLR,,0.17,WeatherDisplay:10.37,2013-08-28 23:38:00,
2013-08-28 19:39:00,76.3,0.3,29.92,ENE,68,0.0,0.0,5,0.00,CLR,,0.17,WeatherDisplay:10.37,2013-08-28 23:39:00,
2013-08-28 19:40:00,76.2,0.2,29.92,ENE,68,0.0,0.0,5,0.00,CLR,,0.17,WeatherDisplay:10.37,2013-08-28 23:40:00,
2013-08-28 19:41:00,76.4,0.4,29.92,ENE,68,0.0,0.0,5,0.00,CLR,,0.17,WeatherDisplay:10.37,2013-08-28 23:41:00,
2013-08-28 19:42:00,76.4,0.4,29.91,ENE,68,0.0,0.0,5,0.00,CLR,,0.17,WeatherDisplay:10.37,2013-08-28 23:42:00,
2013-08-28 19:44:00,76.2,0.2,29.91,ENE,68,0.0,0.0,5,0.00,CLR,,0.17,WeatherDisplay:10.37,2013-08-28 23:44:00,
2013-08-28 19:45:00,76.3,0.3,29.91,ENE,68,0.0,0.0,5,0.00,CLR,,0.17,WeatherDisplay:10.37,2013-08-28 23:45:00,
2013-08-28 19:46:00,76.3,-4.4,29.91,ENE,68,0.0,0.0,4,0.00,CLR,,0.17,WeatherDisplay:10.37,2013-08-28 23:46:00,
2013-08-28 19:47:00,76.3,-4.4,29.91,ENE,68,0.0,0.0,4,0.00,CLR,,0.17,WeatherDisplay:10.37,2013-08-28 23:47:00,
2013-08-28 19:49:00,76.5,-4.3,29.91,ENE,68,0.0,0.0,4,0.00,CLR,,0.17,WeatherDisplay:10.37,2013-08-28 23:49:00,
2013-08-28 19:50:00,76.5,-4.3,29.91,ENE,68,0.0,0.0,4,0.00,CLR,,0.17,WeatherDisplay:10.37,2013-08-28 23:50:00,
2013-08-28 19:52:00,76.0,-4.6,29.91,ENE,68,0.0,0.0,4,0.00,CLR,,0.17,WeatherDisplay:10.37,2013-08-28 23:52:00,
2013-08-28 19:54:00,76.4,-4.3,29.91,ENE,68,0.0,0.0,4,0.00,CLR,,0.17,WeatherDisplay:10.37,2013-08-28 23:54:00,
2013-08-28 19:55:00,76.2,0.2,29.91,ENE,68,0.0,0.0,5,0.00,CLR,,0.17,WeatherDisplay:10.37,2013-08-28 23:55:00,
2013-08-28 19:56:00,76.4,0.4,29.91,ENE,68,0.0,0.0,5,0.00,CLR,,0.17,WeatherDisplay:10.37,2013-08-28 23:56:00,
2013-08-28 19:57:00,76.1,4.1,29.91,ENE,68,0.0,0.0,6,0.00,CLR,,0.17,WeatherDisplay:10.37,2013-08-28 23:57:00,
2013-08-28 19:58:00,76.3,4.2,29.92,ENE,68,0.0,0.0,6,0.00,CLR,,0.17,WeatherDisplay:10.37,2013-08-28 23:58:00,
2013-08-28 20:00:00,76.1,7.5,29.92,ENE,68,0.0,0.0,7,0.00,CLR,,0.17,WeatherDisplay:10.37,2013-08-29 00:00:00,
2013-08-28 20:01:00,76.1,4.1,29.92,ENE,68,0.0,0.0,6,0.00,CLR,,0.17,WeatherDisplay:10.37,2013-08-29 00:01:00,
2013-08-28 20:02:00,76.2,7.5,29.92,ENE,68,0.0,0.0,7,0.00,CLR,,0.17,WeatherDisplay:10.37,2013-08-29 00:02:00,
2013-08-28 20:03:00,76.1,10.4,29.92,ENE,68,0.0,0.0,8,0.00,CLR,,0.17,WeatherDisplay:10.37,2013-08-29 00:03:00,
2013-08-28 20:05:00,76.2,13.2,29.92,ENE,68,0.0,0.0,9,0.00,CLR,,0.17,WeatherDisplay:10.37,2013-08-29 00:05:00,
2013-08-28 20:06:00,76.0,15.4,29.92,ENE,68,0.0,0.0,10,0.00,CLR,,0.17,WeatherDisplay:10.37,2013-08-29 00:06:00,
2013-08-28 20:07:00,76.0,15.4,29.92,ENE,68,0.0,0.0,10,0.00,CLR,,0.17,WeatherDisplay:10.37,2013-08-29 00:07:00,
2013-08-28 20:08:00,75.7,15.2,29.92,ENE,68,0.0,0.0,10,0.00,CLR,,0.17,WeatherDisplay:10.37,2013-08-29 00:08:00,
2013-08-28 20:10:00,75.8,15.3,29.92,ENE,68,0.0,0.0,10,0.00,CLR,,0.17,WeatherDisplay:10.37,2013-08-29 00:10:00,
2013-08-28 20:11:00,75.8,17.5,29.92,ENE,68,0.0,0.0,11,0.00,CLR,,0.17,WeatherDisplay:10.37,2013-08-29 00:11:00,
2013-08-28 20:12:00,75.7,17.4,29.92,ENE,68,0.0,0.0,11,0.00,CLR,,0.17,WeatherDisplay:10.37,2013-08-29 00:12:00,
2013-08-28 20:13:00,75.7,17.4,29.92,ENE,68,0.0,0.0,11,0.00,CLR,,0.17,WeatherDisplay:10.37,2013-08-29 00:13:00,
2013-08-28 20:15:00,75.8,17.5,29.92,ENE,68,0.0,0.0,11,0.00,CLR,,0.17,WeatherDisplay:10.37,2013-08-29 00:15:00,
2013-08-28 20:16:00,75.7,17.4,29.92,ENE,68,0.0,0.0,11,0.00,CLR,,0.17,WeatherDisplay:10.37,2013-08-29 00:16:00,
2013-08-28 20:17:00,75.7,19.4,29.93,ENE,68,0.0,0.0,12,0.00,CLR,,0.17,WeatherDisplay:10.37,2013-08-29 00:17:00,
2013-08-28 20:19:00,75.6,19.4,29.93,ENE,68,0.0,0.0,12,0.00,CLR,,0.17,WeatherDisplay:10.37,2013-08-29 00:19:00,
2013-08-28 20:20:00,75.4,7.0,29.93,WSW,243,0.6,4.6,7,0.00,CLR,,0.17,WeatherDisplay:10.37,2013-08-29 00:20:00,
2013-08-28 20:21:00,75.8,10.2,29.93,WSW,243,0.2,4.6,8,0.00,CLR,,0.17,WeatherDisplay:10.37,2013-08-29 00:21:00,
2013-08-28 20:22:00,75.4,12.6,29.93,WSW,243,0.0,0.0,9,0.00,CLR,,0.17,WeatherDisplay:10.37,2013-08-29 00:22:00,
2013-08-28 20:23:00,75.4,12.6,29.93,WSW,243,0.0,0.0,9,0.00,CLR,,0.17,WeatherDisplay:10.37,2013-08-29 00:23:00,
2013-08-28 20:24:00,75.8,3.9,29.92,WSW,243,0.0,0.0,6,0.00,CLR,,0.17,WeatherDisplay:10.37,2013-08-29 00:24:00,
2013-08-28 20:25:00,75.9,3.9,29.92,WSW,243,0.0,0.0,6,0.00,CLR,,0.17,WeatherDisplay:10.37,2013-08-29 00:25:00,
2013-08-28 20:26:00,76.2,4.2,29.92,WSW,243,0.0,0.0,6,0.00,CLR,,0.17,WeatherDisplay:10.37,2013-08-29 00:26:00,
2013-08-28 20:27:00,75.9,3.9,29.92,WSW,243,0.0,0.0,6,0.00,CLR,,0.17,WeatherDisplay:10.37,2013-08-29 00:27:00,
2013-08-28 20:28:00,75.9,3.9,29.92,WSW,243,0.0,0.0,6,0.00,CLR,,0.17,WeatherDisplay:10.37,2013-08-29 00:28:00,
2013-08-28 20:30:00,76.4,0.4,29.92,WSW,243,0.0,0.0,5,0.00,CLR,,0.17,WeatherDisplay:10.37,2013-08-29 00:30:00,
2013-08-28 20:31:00,76.2,0.2,29.92,WSW,243,0.0,0.0,5,0.00,CLR,,0.17,WeatherDisplay:10.37,2013-08-29 00:31:00,
2013-08-28 20:32:00,76.4,-4.3,29.92,West,264,0.4,3.0,4,0.00,CLR,,0.17,WeatherDisplay:10.37,2013-08-29 00:32:00,
2013-08-28 20:34:00,76.1,-4.6,29.92,West,271,0.0,0.0,4,0.00,CLR,,0.17,WeatherDisplay:10.37,2013-08-29 00:34:00,
2013-08-28 20:35:00,76.2,-4.5,29.92,West,271,0.0,0.0,4,0.00,CLR,,0.17,WeatherDisplay:10.37,2013-08-29 00:35:00,
2013-08-28 20:36:00,76.2,-4.5,29.92,West,271,0.0,0.0,4,0.00,CLR,,0.17,WeatherDisplay:10.37,2013-08-29 00:36:00,
2013-08-28 20:37:00,76.6,-4.2,29.92,West,271,0.0,0.0,4,0.00,CLR,,0.17,WeatherDisplay:10.37,2013-08-29 00:37:00,
2013-08-28 20:39:00,76.4,-4.3,29.92,WNW,296,0.6,4.6,4,0.00,CLR,,0.17,WeatherDisplay:10.37,2013-08-29 00:39:00,
2013-08-28 20:40:00,76.7,-4.1,29.92,WNW,296,0.0,0.0,4,0.00,CLR,,0.17,WeatherDisplay:10.37,2013-08-29 00:40:00,
2013-08-28 20:41:00,76.5,-4.3,29.92,WNW,296,0.0,0.0,4,0.00,CLR,,0.17,WeatherDisplay:10.37,2013-08-29 00:41:00,
2013-08-28 20:42:00,76.4,-10.3,29.92,WNW,296,0.0,0.0,3,0.00,CLR,,0.17,WeatherDisplay:10.37,2013-08-29 00:42:00,
2013-08-28 20:43:00,76.2,-10.4,29.92,WNW,296,0.0,0.0,3,0.00,CLR,,0.17,WeatherDisplay:10.37,2013-08-29 00:43:00,
2013-08-28 20:44:00,76.5,-4.3,29.92,WNW,296,0.0,0.0,4,0.00,CLR,,0.17,WeatherDisplay:10.37,2013-08-29 00:44:00,
2013-08-28 20:46:00,76.6,-10.1,29.92,WNW,296,0.0,0.0,3,0.00,CLR,,0.17,WeatherDisplay:10.37,2013-08-29 00:46:00,
2013-08-28 20:47:00,76.4,-10.3,29.92,WNW,296,0.0,0.0,3,0.00,CLR,,0.17,WeatherDisplay:10.37,2013-08-29 00:47:00,
2013-08-28 20:48:00,76.6,-10.1,29.92,WNW,288,0.9,2.8,3,0.00,CLR,,0.17,WeatherDisplay:10.37,2013-08-29 00:48:00,
2013-08-28 20:49:00,76.3,-10.3,29.92,WNW,288,0.0,4.6,3,0.00,CLR,,0.17,WeatherDisplay:10.37,2013-08-29 00:49:00,
2013-08-28 20:51:00,76.3,-10.3,29.92,WNW,288,0.0,0.0,3,0.00,CLR,,0.17,WeatherDisplay:10.37,2013-08-29 00:51:00,
2013-08-28 20:52:00,76.4,-18.3,29.92,West,270,0.7,0.0,2,0.00,CLR,,0.17,WeatherDisplay:10.37,2013-08-29 00:52:00,
2013-08-28 20:55:00,76.8,-18.1,29.91,West,270,0.0,0.0,2,0.00,CLR,,0.17,WeatherDisplay:10.37,2013-08-29 00:55:00,
2013-08-28 20:56:00,76.7,-18.1,29.91,West,270,0.0,0.0,2,0.00,CLR,,0.17,WeatherDisplay:10.37,2013-08-29 00:56:00,
2013-08-28 20:57:00,76.3,-18.4,29.92,West,270,0.0,0.0,2,0.00,CLR,,0.17,WeatherDisplay:10.37,2013-08-29 00:57:00,
2013-08-28 20:58:00,76.5,-18.2,29.92,West,270,0.0,0.0,2,0.00,CLR,,0.17,WeatherDisplay:10.37,2013-08-29 00:58:00,
2013-08-28 21:01:00,76.5,-18.2,29.92,West,270,0.0,0.0,2,0.00,CLR,,0.17,WeatherDisplay:10.37,2013-08-29 01:01:00,
2013-08-28 21:02:00,76.3,-18.4,29.92,West,270,0.0,0.0,2,0.00,CLR,,0.17,WeatherDisplay:10.37,2013-08-29 01:02:00,
2013-08-28 21:03:00,76.4,-18.3,29.92,WNW,292,0.2,3.3,2,0.00,CLR,,0.17,WeatherDisplay:10.37,2013-08-29 01:03:00,
2013-08-28 21:06:00,76.9,-18.0,29.92,NW,313,0.3,3.4,2,0.00,CLR,,0.17,WeatherDisplay:10.37,2013-08-29 01:06:00,
2013-08-28 21:07:00,76.6,-18.2,29.91,NW,308,1.4,4.6,2,0.00,CLR,,0.17,WeatherDisplay:10.37,2013-08-29 01:07:00,
2013-08-28 21:08:00,77.5,-17.6,29.92,NW,308,0.0,0.0,2,0.00,CLR,,0.17,WeatherDisplay:10.37,2013-08-29 01:08:00,
2013-08-28 21:12:00,77.1,-17.9,29.92,NW,308,0.0,0.0,2,0.00,CLR,,0.17,WeatherDisplay:10.37,2013-08-29 01:12:00,
2013-08-28 21:13:00,76.8,-18.1,29.92,NW,308,0.0,0.0,2,0.00,CLR,,0.17,WeatherDisplay:10.37,2013-08-29 01:13:00,
2013-08-28 21:17:00,76.4,-18.3,29.92,NW,308,0.0,0.0,2,0.00,CLR,,0.17,WeatherDisplay:10.37,2013-08-29 01:17:00,
2013-08-28 21:18:00,76.9,-18.0,29.92,NW,308,0.0,0.0,2,0.00,CLR,,0.17,WeatherDisplay:10.37,2013-08-29 01:18:00,
2013-08-28 21:22:00,76.6,-18.2,29.92,NW,308,0.0,0.0,2,0.00,CLR,,0.17,WeatherDisplay:10.37,2013-08-29 01:22:00,
2013-08-28 21:23:00,76.6,-18.2,29.92,NW,308,0.0,0.0,2,0.00,CLR,,0.17,WeatherDisplay:10.37,2013-08-29 01:23:00,
2013-08-28 21:25:00,76.4,-18.3,29.92,West,272,0.5,3.5,2,0.00,CLR,,0.17,WeatherDisplay:10.37,2013-08-29 01:25:00,
2013-08-28 21:27:00,77.1,-17.9,29.92,West,272,0.0,0.0,2,0.00,CLR,,0.18,WeatherDisplay:10.37,2013-08-29 01:27:00,
2013-08-28 21:28:00,76.9,-18.0,29.92,West,272,0.0,0.0,2,0.00,CLR,,0.18,WeatherDisplay:10.37,2013-08-29 01:28:00,
2013-08-28 21:29:00,76.4,-18.3,29.92,West,272,0.0,0.0,2,0.01,RA,,0.18,WeatherDisplay:10.37,2013-08-29 01:29:00,
2013-08-28 21:32:00,76.2,-18.4,29.91,West,272,0.0,0.0,2,0.01,RA,,0.18,WeatherDisplay:10.37,2013-08-29 01:32:00,
2013-08-28 21:33:00,76.5,-18.2,29.91,West,272,0.0,0.0,2,0.01,RA,,0.18,WeatherDisplay:10.37,2013-08-29 01:33:00,
2013-08-28 21:34:00,76.4,-10.3,29.92,West,272,0.0,0.0,3,0.01,RA,,0.18,WeatherDisplay:10.37,2013-08-29 01:34:00,
2013-08-28 21:38:00,76.2,-10.4,29.91,West,272,0.0,0.0,3,0.01,,,0.18,WeatherDisplay:10.37,2013-08-29 01:38:00,
2013-08-28 21:39:00,76.4,-4.3,29.92,West,272,0.0,0.0,4,0.01,,,0.18,WeatherDisplay:10.37,2013-08-29 01:39:00,
2013-08-28 21:43:00,76.1,-4.6,29.92,West,272,0.0,0.0,4,0.01,CLR,,0.18,WeatherDisplay:10.37,2013-08-29 01:43:00,
2013-08-28 21:44:00,76.2,-4.5,29.93,West,272,0.0,0.0,4,0.01,CLR,,0.18,WeatherDisplay:10.37,2013-08-29 01:44:00,
2013-08-28 21:45:00,75.8,-4.8,29.93,West,272,0.0,0.0,4,0.01,CLR,,0.18,WeatherDisplay:10.37,2013-08-29 01:45:00,
2013-08-28 21:48:00,76.2,-10.4,29.93,West,272,0.0,0.0,3,0.01,CLR,,0.18,WeatherDisplay:10.37,2013-08-29 01:48:00,
2013-08-28 21:49:00,76.1,-10.5,29.93,West,272,0.0,0.0,3,0.01,CLR,,0.18,WeatherDisplay:10.37,2013-08-29 01:49:00,
2013-08-28 21:50:00,76.2,-10.4,29.93,West,272,0.0,0.0,3,0.01,CLR,,0.18,WeatherDisplay:10.37,2013-08-29 01:50:00,
2013-08-28 21:53:00,75.9,-10.6,29.93,West,272,0.0,0.0,3,0.01,CLR,,0.18,WeatherDisplay:10.37,2013-08-29 01:53:00,
2013-08-28 21:54:00,76.1,-10.5,29.93,West,272,0.0,0.0,3,0.01,CLR,,0.18,WeatherDisplay:10.37,2013-08-29 01:54:00,
2013-08-28 21:58:00,76.1,-10.5,29.93,West,272,0.0,0.0,3,0.01,CLR,,0.18,WeatherDisplay:10.37,2013-08-29 01:58:00,
2013-08-28 21:59:00,76.1,-10.5,29.94,West,272,0.0,0.0,3,0.01,CLR,,0.18,WeatherDisplay:10.37,2013-08-29 01:59:00,
2013-08-28 22:03:00,76.1,-10.5,29.94,West,272,0.0,0.0,3,0.01,CLR,,0.18,WeatherDisplay:10.37,2013-08-29 02:03:00,
2013-08-28 22:04:00,76.1,-10.5,29.94,West,272,0.0,0.0,3,0.01,CLR,,0.18,WeatherDisplay:10.37,2013-08-29 02:04:00,
2013-08-28 22:05:00,76.4,-4.3,29.94,West,272,0.0,0.0,4,0.01,CLR,,0.18,WeatherDisplay:10.37,2013-08-29 02:05:00,
2013-08-28 22:09:00,76.1,-10.5,29.94,North,360,1.0,3.2,3,0.01,CLR,,0.18,WeatherDisplay:10.37,2013-08-29 02:09:00,
2013-08-28 22:10:00,76.1,-10.5,29.94,North,360,0.8,3.5,3,0.01,CLR,,0.18,WeatherDisplay:10.37,2013-08-29 02:10:00,
2013-08-28 22:14:00,76.2,-18.4,29.94,North,360,0.0,0.0,2,0.01,CLR,,0.18,WeatherDisplay:10.37,2013-08-29 02:14:00,
2013-08-28 22:15:00,76.4,-18.3,29.94,North,360,0.0,0.0,2,0.01,CLR,,0.18,WeatherDisplay:10.37,2013-08-29 02:15:00,
2013-08-28 22:19:00,76.1,-18.5,29.94,North,360,0.0,0.0,2,0.01,CLR,,0.18,WeatherDisplay:10.37,2013-08-29 02:19:00,
2013-08-28 22:20:00,76.1,-18.5,29.94,North,360,0.0,0.0,2,0.01,CLR,,0.18,WeatherDisplay:10.37,2013-08-29 02:20:00,
2013-08-28 22:21:00,76.4,-18.3,29.94,North,360,0.0,0.0,2,0.01,CLR,,0.18,WeatherDisplay:10.37,2013-08-29 02:21:00,
2013-08-28 22:24:00,76.4,-18.3,29.94,North,360,0.0,0.0,2,0.01,CLR,,0.18,WeatherDisplay:10.37,2013-08-29 02:24:00,
2013-08-28 22:25:00,76.3,-18.4,29.94,North,360,0.0,0.0,2,0.01,CLR,,0.18,WeatherDisplay:10.37,2013-08-29 02:25:00,
2013-08-28 22:26:00,76.4,-18.3,29.94,North,360,0.0,0.0,2,0.01,CLR,,0.18,WeatherDisplay:10.37,2013-08-29 02:26:00,
2013-08-28 22:27:00,76.2,-18.4,29.95,North,360,0.0,0.0,2,0.01,CLR,,0.18,WeatherDisplay:10.37,2013-08-29 02:27:00,
2013-08-28 22:29:00,76.5,-18.2,29.94,North,360,0.0,0.0,2,0.00,CLR,,0.18,WeatherDisplay:10.37,2013-08-29 02:29:00,
2013-08-28 22:30:00,76.6,-18.2,29.94,North,360,0.0,0.0,2,0.00,CLR,,0.18,WeatherDisplay:10.37,2013-08-29 02:30:00,
2013-08-28 22:31:00,76.3,-18.4,29.94,North,360,0.0,0.0,2,0.00,CLR,,0.18,WeatherDisplay:10.37,2013-08-29 02:31:00,
2013-08-28 22:32:00,76.3,-18.4,29.94,North,360,0.0,0.0,2,0.00,CLR,,0.18,WeatherDisplay:10.37,2013-08-29 02:32:00,
2013-08-28 22:34:00,76.7,-18.1,29.94,North,360,0.0,0.0,2,0.00,CLR,,0.18,WeatherDisplay:10.37,2013-08-29 02:34:00,
2013-08-28 22:35:00,76.4,-18.3,29.94,North,360,0.0,0.0,2,0.00,CLR,,0.18,WeatherDisplay:10.37,2013-08-29 02:35:00,
2013-08-28 22:36:00,76.5,-18.2,29.94,North,360,0.0,0.0,2,0.00,CLR,,0.18,WeatherDisplay:10.37,2013-08-29 02:36:00,
2013-08-28 22:37:00,76.5,-18.2,29.94,North,360,0.0,0.0,2,0.00,CLR,,0.18,WeatherDisplay:10.37,2013-08-29 02:37:00,
2013-08-28 22:38:00,76.7,-18.1,29.94,North,360,0.0,0.0,2,0.00,CLR,,0.18,WeatherDisplay:10.37,2013-08-29 02:38:00,
2013-08-28 22:39:00,76.7,-18.1,29.94,North,360,0.0,0.0,2,0.00,CLR,,0.18,WeatherDisplay:10.37,2013-08-29 02:39:00,
2013-08-28 22:40:00,76.3,-18.4,29.94,North,360,0.0,0.0,2,0.00,CLR,,0.18,WeatherDisplay:10.37,2013-08-29 02:40:00,
2013-08-28 22:42:00,76.7,-18.1,29.94,North,360,0.0,0.0,2,0.00,CLR,,0.18,WeatherDisplay:10.37,2013-08-29 02:42:00,
2013-08-28 22:43:00,76.6,-18.2,29.94,North,360,0.0,0.0,2,0.00,CLR,,0.18,WeatherDisplay:10.37,2013-08-29 02:43:00,
2013-08-28 22:44:00,76.4,-18.3,29.94,North,360,0.0,0.0,2,0.00,CLR,,0.18,WeatherDisplay:10.37,2013-08-29 02:44:00,
2013-08-28 22:45:00,76.1,-18.5,29.94,North,360,0.0,0.0,2,0.00,CLR,,0.18,WeatherDisplay:10.37,2013-08-29 02:45:00,
2013-08-28 22:46:00,76.4,-18.3,29.94,North,360,0.0,0.0,2,0.00,CLR,,0.18,WeatherDisplay:10.37,2013-08-29 02:46:00,
2013-08-28 22:47:00,76.7,-18.1,29.93,North,360,0.0,0.0,2,0.00,CLR,,0.18,WeatherDisplay:10.37,2013-08-29 02:47:00,
2013-08-28 22:49:00,76.4,-18.3,29.93,North,360,0.0,0.0,2,0.00,CLR,,0.18,WeatherDisplay:10.37,2013-08-29 02:49:00,
2013-08-28 22:50:00,77.1,-17.9,29.93,North,360,0.0,0.0,2,0.00,CLR,,0.18,WeatherDisplay:10.37,2013-08-29 02:50:00,
2013-08-28 22:51:00,76.6,-18.2,29.93,North,360,0.0,0.0,2,0.00,CLR,,0.18,WeatherDisplay:10.37,2013-08-29 02:51:00,
2013-08-28 22:52:00,76.3,-18.4,29.93,North,360,0.0,0.0,2,0.00,CLR,,0.18,WeatherDisplay:10.37,2013-08-29 02:52:00,
2013-08-28 22:53:00,76.2,-18.4,29.93,North,360,0.0,0.0,2,0.00,CLR,,0.18,WeatherDisplay:10.37,2013-08-29 02:53:00,
2013-08-28 22:54:00,76.3,-10.3,29.93,North,360,0.0,0.0,3,0.00,CLR,,0.18,WeatherDisplay:10.37,2013-08-29 02:54:00,
2013-08-28 22:55:00,76.6,-10.1,29.93,North,360,0.0,0.0,3,0.00,CLR,,0.18,WeatherDisplay:10.37,2013-08-29 02:55:00,
2013-08-28 22:56:00,76.2,-10.4,29.93,North,360,0.0,0.0,3,0.00,CLR,,0.18,WeatherDisplay:10.37,2013-08-29 02:56:00,
2013-08-28 22:57:00,76.1,-10.5,29.93,North,360,0.0,0.0,3,0.00,CLR,,0.18,WeatherDisplay:10.37,2013-08-29 02:57:00,
2013-08-28 22:59:00,76.4,-4.3,29.93,North,360,0.0,0.0,4,0.00,CLR,,0.18,WeatherDisplay:10.37,2013-08-29 02:59:00,
2013-08-28 23:00:00,76.1,-10.5,29.93,North,360,0.0,0.0,3,0.00,CLR,,0.18,WeatherDisplay:10.37,2013-08-29 03:00:00,
2013-08-28 23:02:00,76.0,-10.5,29.93,North,360,0.0,0.0,3,0.00,CLR,,0.18,WeatherDisplay:10.37,2013-08-29 03:02:00,
2013-08-28 23:03:00,75.8,-10.7,29.93,North,360,0.0,0.0,3,0.00,CLR,,0.18,WeatherDisplay:10.37,2013-08-29 03:03:00,
2013-08-28 23:04:00,76.2,-10.4,29.93,North,360,0.0,0.0,3,0.00,CLR,,0.18,WeatherDisplay:10.37,2013-08-29 03:04:00,
2013-08-28 23:05:00,76.0,-10.5,29.93,North,360,0.0,0.0,3,0.00,CLR,,0.18,WeatherDisplay:10.37,2013-08-29 03:05:00,
2013-08-28 23:07:00,75.8,-4.8,29.93,WNW,301,0.4,3.2,4,0.00,CLR,,0.18,WeatherDisplay:10.37,2013-08-29 03:07:00,
2013-08-28 23:09:00,75.9,-4.7,29.93,NW,323,2.2,5.8,4,0.00,CLR,,0.18,WeatherDisplay:10.37,2013-08-29 03:09:00,
2013-08-28 23:10:00,75.9,-4.7,29.93,West,278,1.2,3.5,4,0.00,CLR,,0.18,WeatherDisplay:10.37,2013-08-29 03:10:00,
2013-08-28 23:11:00,76.0,-4.6,29.93,WNW,295,2.7,5.8,4,0.00,CLR,,0.18,WeatherDisplay:10.37,2013-08-29 03:11:00,
2013-08-28 23:12:00,75.7,-4.8,29.93,NNW,347,3.0,5.8,4,0.00,CLR,,0.18,WeatherDisplay:10.37,2013-08-29 03:12:00,
2013-08-28 23:14:00,76.1,-4.6,29.93,West,268,1.3,4.6,4,0.00,CLR,,0.18,WeatherDisplay:10.37,2013-08-29 03:14:00,
2013-08-28 23:15:00,76.1,-4.6,29.92,West,268,1.3,4.6,4,0.00,CLR,,0.18,WeatherDisplay:10.37,2013-08-29 03:15:00,
2013-08-28 23:16:00,75.9,-4.7,29.92,West,268,0.0,0.0,4,0.00,CLR,,0.18,WeatherDisplay:10.37,2013-08-29 03:16:00,
2013-08-28 23:17:00,76.1,-4.6,29.93,West,268,0.0,0.0,4,0.00,CLR,,0.18,WeatherDisplay:10.37,2013-08-29 03:17:00,
2013-08-28 23:19:00,75.7,-4.8,29.93,NW,319,2.1,3.1,4,0.00,CLR,,0.18,WeatherDisplay:10.37,2013-08-29 03:19:00,
2013-08-28 23:20:00,76.0,-4.6,29.93,NW,319,2.1,0.0,4,0.00,CLR,,0.18,WeatherDisplay:10.37,2013-08-29 03:20:00,
2013-08-28 23:21:00,75.9,-4.7,29.93,NW,319,0.0,5.8,4,0.00,CLR,,0.18,WeatherDisplay:10.37,2013-08-29 03:21:00,
2013-08-28 23:22:00,76.2,-4.5,29.93,NW,319,0.0,0.0,4,0.00,CLR,,0.18,WeatherDisplay:10.37,2013-08-29 03:22:00,
2013-08-28 23:24:00,75.5,-5.0,29.93,NNW,336,1.5,0.0,4,0.00,CLR,,0.18,WeatherDisplay:10.37,2013-08-29 03:24:00,
2013-08-28 23:25:00,75.9,-4.7,29.93,NNW,336,0.7,4.6,4,0.00,CLR,,0.18,WeatherDisplay:10.37,2013-08-29 03:25:00,
2013-08-28 23:26:00,75.8,-0.1,29.93,NW,312,0.5,3.5,5,0.00,CLR,,0.18,WeatherDisplay:10.37,2013-08-29 03:26:00,
2013-08-28 23:27:00,75.8,-0.1,29.93,NNW,333,1.1,4.5,5,0.00,CLR,,0.18,WeatherDisplay:10.37,2013-08-29 03:27:00,
2013-08-28 23:29:00,75.8,-0.1,29.93,North,360,3.4,5.8,5,0.00,CLR,,0.18,WeatherDisplay:10.37,2013-08-29 03:29:00,
2013-08-28 23:31:00,75.3,3.5,29.93,North,10,3.3,5.9,6,0.00,CLR,,0.18,WeatherDisplay:10.37,2013-08-29 03:31:00,
2013-08-28 23:32:00,75.0,-0.6,29.92,NNW,337,3.6,5.8,5,0.00,CLR,,0.18,WeatherDisplay:10.37,2013-08-29 03:32:00,
2013-08-28 23:34:00,75.0,-0.6,29.93,NNW,344,3.8,5.8,5,0.00,CLR,,0.18,WeatherDisplay:10.37,2013-08-29 03:34:00,
2013-08-28 23:36:00,75.0,-0.6,29.93,WSW,247,1.4,4.6,5,0.00,CLR,,0.18,WeatherDisplay:10.37,2013-08-29 03:36:00,
2013-08-28 23:37:00,75.2,-0.5,29.93,WNW,287,2.6,5.8,5,0.00,CLR,,0.18,WeatherDisplay:10.37,2013-08-29 03:37:00,
2013-08-28 23:38:00,75.2,-0.5,29.93,WNW,298,5.0,8.1,5,0.00,CLR,,0.19,WeatherDisplay:10.37,2013-08-29 03:38:00,
2013-08-28 23:39:00,75.3,3.5,29.93,WNW,288,2.8,6.9,6,0.02,RA,,0.20,WeatherDisplay:10.37,2013-08-29 03:39:00,
2013-08-28 23:42:00,74.9,9.6,29.92,North,354,5.2,8.1,8,0.04,RA,,0.22,WeatherDisplay:10.37,2013-08-29 03:42:00,
2013-08-28 23:43:00,74.4,11.8,29.92,WNW,301,6.1,8.1,9,0.04,RA,,0.22,WeatherDisplay:10.37,2013-08-29 03:43:00,
2013-08-28 23:44:00,74.3,14.1,29.92,North,356,6.0,9.2,10,0.04,RA,,0.22,WeatherDisplay:10.37,2013-08-29 03:44:00,
2013-08-28 23:47:00,74.2,18.3,29.92,NW,306,6.8,9.2,12,0.04,RA,,0.22,WeatherDisplay:10.37,2013-08-29 03:47:00,
2013-08-28 23:48:00,74.1,20.1,29.92,NW,326,5.6,8.1,13,0.04,RA,,0.22,WeatherDisplay:10.37,2013-08-29 03:48:00,
2013-08-28 23:50:00,74.2,21.9,29.92,NW,315,5.3,8.1,14,0.04,RA,,0.22,WeatherDisplay:10.37,2013-08-29 03:50:00,
2013-08-28 23:52:00,74.1,25.0,29.92,NNW,344,0.3,4.6,16,0.04,,,0.22,WeatherDisplay:10.37,2013-08-29 03:52:00,
2013-08-28 23:53:00,74.1,25.0,29.92,NNW,344,0.0,2.6,16,0.04,,,0.22,WeatherDisplay:10.37,2013-08-29 03:53:00,
2013-08-28 23:54:00,74.1,26.5,29.92,NW,312,3.5,7.8,17,0.04,,,0.22,WeatherDisplay:10.37,2013-08-29 03:54:00,
2013-08-28 23:55:00,74.1,27.9,29.92,NW,320,2.1,8.1,18,0.04,CLR,,0.22,WeatherDisplay:10.37,2013-08-29 03:55:00,
2013-08-28 23:58:00,74.1,26.5,29.92,North,360,7.4,10.4,17,0.04,CLR,,0.22,WeatherDisplay:10.37,2013-08-29 03:58:00,
2013-08-28 23:59:00,74.0,26.4,29.92,North,353,6.8,10.4,17,0.04,RA,,0.00,WeatherDisplay:10.37,2013-08-29 03:59:00,